Time,TemperatureF,DewpointF,PressureIn,WindDirection,WindDirectionDegrees,WindSpeedMPH,WindSpeedGustMPH,Humidity,HourlyPrecipIn,Conditions,Clouds,dailyrainin,SoftwareType,DateUTC
2013-02-20 00:01:00,19.8,-2.3,0.00,SW,219,0.0,0.0,37,0.00,,---,0.00,VWS V14.00,2013-02-20 07:01:00,
2013-02-20 00:02:00,19.8,-2.3,0.00,SW,226,0.0,0.0,37,0.00,,---,0.00,VWS V14.00,2013-02-20 07:02:00,
2013-02-20 00:03:00,19.8,-2.3,0.00,SW,226,0.0,0.0,37,0.00,,---,0.00,VWS V14.00,2013-02-20 07:03:00,
2013-02-20 00:07:00,19.6,-2.5,0.00,SW,224,0.0,0.0,37,0.00,,---,0.00,VWS V14.00,2013-02-20 07:07:00,
2013-02-20 00:08:00,19.6,-2.5,0.00,SW,228,0.0,0.0,37,0.00,,---,0.00,VWS V14.00,2013-02-20 07:08:00,
2013-02-20 00:12:00,19.6,-2.5,0.00,SW,228,0.0,0.0,37,0.00,,---,0.00,VWS V14.00,2013-02-20 07:12:00,
2013-02-20 00:13:00,19.6,-2.5,0.00,SW,227,0.0,0.0,37,0.00,,---,0.00,VWS V14.00,2013-02-20 07:13:00,
2013-02-20 00:17:00,19.6,-2.5,0.00,SW,228,0.0,0.0,37,0.00,,---,0.00,VWS V14.00,2013-02-20 07:17:00,
2013-02-20 00:18:00,19.6,-2.5,0.00,SW,228,0.0,0.0,37,0.00,,---,0.00,VWS V14.00,2013-02-20 07:18:00,
2013-02-20 00:22:00,19.4,-2.6,0.00,SW,228,0.0,0.0,37,0.00,,---,0.00,VWS V14.00,2013-02-20 07:22:00,
2013-02-20 00:23:00,19.4,-2.6,0.00,SW,228,0.0,0.0,37,0.00,,---,0.00,VWS V14.00,2013-02-20 07:23:00,
2013-02-20 00:27:00,19.4,-2.6,0.00,SW,228,0.0,0.0,37,0.00,,---,0.00,VWS V14.00,2013-02-20 07:27:00,
2013-02-20 00:28:00,19.4,-2.6,0.00,SW,228,0.0,0.0,37,0.00,,---,0.00,VWS V14.00,2013-02-20 07:28:00,
2013-02-20 00:32:00,19.4,-2.6,0.00,SW,228,0.0,0.0,37,0.00,,---,0.00,VWS V14.00,2013-02-20 07:32:00,
2013-02-20 00:33:00,19.4,-2.6,0.00,SW,228,0.0,0.0,37,0.00,,---,0.00,VWS V14.00,2013-02-20 07:33:00,
2013-02-20 00:37:00,19.2,-2.8,0.00,SW,230,0.0,0.0,37,0.00,,---,0.00,VWS V14.00,2013-02-20 07:37:00,
2013-02-20 00:38:00,19.2,-2.8,0.00,SW,231,0.0,0.0,37,0.00,,---,0.00,VWS V14.00,2013-02-20 07:38:00,
2013-02-20 00:42:00,19.2,-2.8,0.00,SW,231,0.0,0.0,37,0.00,,---,0.00,VWS V14.00,2013-02-20 07:42:00,
2013-02-20 00:43:00,19.2,-2.8,0.00,SW,231,0.0,0.0,37,0.00,,---,0.00,VWS V14.00,2013-02-20 07:43:00,
2013-02-20 00:47:00,19.2,-2.8,0.00,WSW,244,0.0,0.0,37,0.00,,---,0.00,VWS V14.00,2013-02-20 07:47:00,
2013-02-20 00:48:00,19.2,-2.8,0.00,West,261,0.0,0.0,37,0.00,,---,0.00,VWS V14.00,2013-02-20 07:48:00,
2013-02-20 00:52:00,19.2,-2.8,0.00,WNW,282,0.0,0.0,37,0.00,,---,0.00,VWS V14.00,2013-02-20 07:52:00,
2013-02-20 00:53:00,19.2,-2.8,0.00,WNW,282,0.0,0.0,37,0.00,,---,0.00,VWS V14.00,2013-02-20 07:53:00,
2013-02-20 00:57:00,19.2,-2.8,0.00,West,273,0.0,0.0,37,0.00,,---,0.00,VWS V14.00,2013-02-20 07:57:00,
2013-02-20 00:58:00,19.2,-2.8,0.00,West,280,0.0,0.0,37,0.00,,---,0.00,VWS V14.00,2013-02-20 07:58:00,
2013-02-20 01:05:00,19.2,-2.8,0.00,West,263,0.0,0.0,37,0.00,,---,0.00,VWS V14.00,2013-02-20 08:05:00,
2013-02-20 01:10:00,19.2,-2.8,0.00,West,266,0.0,0.0,37,0.00,,---,0.00,VWS V14.00,2013-02-20 08:10:00,
2013-02-20 01:15:00,19.2,-2.8,0.00,West,266,0.0,0.0,37,0.00,,---,0.00,VWS V14.00,2013-02-20 08:15:00,
2013-02-20 01:20:00,19.2,-2.8,0.00,WSW,257,0.0,0.0,37,0.00,,---,0.00,VWS V14.00,2013-02-20 08:20:00,
2013-02-20 01:25:00,19.2,-2.8,0.00,West,259,0.0,0.0,37,0.00,,---,0.00,VWS V14.00,2013-02-20 08:25:00,
2013-02-20 01:26:00,19.4,-2.6,0.00,West,263,0.0,0.0,37,0.00,,---,0.00,VWS V14.00,2013-02-20 08:26:00,
2013-02-20 01:30:00,19.4,-2.6,0.00,WNW,290,0.0,0.0,37,0.00,,---,0.00,VWS V14.00,2013-02-20 08:30:00,
2013-02-20 01:31:00,19.4,-2.6,0.00,WNW,291,0.0,0.0,37,0.00,,---,0.00,VWS V14.00,2013-02-20 08:31:00,
2013-02-20 01:35:00,19.4,-2.6,0.00,WNW,291,0.0,0.0,37,0.00,,---,0.00,VWS V14.00,2013-02-20 08:35:00,
2013-02-20 01:36:00,19.4,-2.6,0.00,WNW,291,0.0,0.0,37,0.00,,---,0.00,VWS V14.00,2013-02-20 08:36:00,
2013-02-20 01:40:00,19.4,-2.6,0.00,WNW,290,0.0,0.0,37,0.00,,---,0.00,VWS V14.00,2013-02-20 08:40:00,
2013-02-20 01:41:00,19.4,-2.6,0.00,WNW,291,0.0,0.0,37,0.00,,---,0.00,VWS V14.00,2013-02-20 08:41:00,
2013-02-20 01:45:00,19.6,-2.5,0.00,WNW,292,0.0,0.0,37,0.00,,---,0.00,VWS V14.00,2013-02-20 08:45:00,
2013-02-20 01:46:00,19.6,-2.5,0.00,WNW,295,0.0,0.0,37,0.00,,---,0.00,VWS V14.00,2013-02-20 08:46:00,
2013-02-20 01:50:00,19.6,-2.5,0.00,West,277,0.0,0.0,37,0.00,,---,0.00,VWS V14.00,2013-02-20 08:50:00,
2013-02-20 01:51:00,19.6,-2.5,0.00,West,277,0.0,0.0,37,0.00,,---,0.00,VWS V14.00,2013-02-20 08:51:00,
2013-02-20 01:55:00,19.6,-2.5,0.00,WNW,287,0.0,0.0,37,0.00,,---,0.00,VWS V14.00,2013-02-20 08:55:00,
2013-02-20 01:56:00,19.6,-2.5,0.00,WNW,298,2.7,2.7,37,0.00,,---,0.00,VWS V14.00,2013-02-20 08:56:00,
2013-02-20 01:57:00,19.8,-2.3,0.00,WNW,297,0.0,0.0,37,0.00,,---,0.00,VWS V14.00,2013-02-20 08:57:00,
2013-02-20 02:00:00,19.8,-2.3,0.00,WNW,297,0.0,0.0,37,0.00,,---,0.00,VWS V14.00,2013-02-20 09:00:00,
2013-02-20 02:01:00,19.8,-2.3,0.00,WNW,298,0.0,0.0,37,0.00,,---,0.00,VWS V14.00,2013-02-20 09:01:00,
2013-02-20 02:02:00,19.8,-2.3,0.00,WSW,247,0.0,0.0,37,0.00,,---,0.00,VWS V14.00,2013-02-20 09:02:00,
2013-02-20 02:05:00,19.8,-2.3,0.00,WNW,302,0.0,0.0,37,0.00,,---,0.00,VWS V14.00,2013-02-20 09:05:00,
2013-02-20 02:06:00,19.8,-2.3,0.00,WNW,300,0.0,0.0,37,0.00,,---,0.00,VWS V14.00,2013-02-20 09:06:00,
2013-02-20 02:07:00,19.8,-2.3,0.00,WNW,300,0.0,0.0,37,0.00,,---,0.00,VWS V14.00,2013-02-20 09:07:00,
2013-02-20 02:11:00,19.8,-2.3,0.00,WNW,302,0.0,0.0,37,0.00,,---,0.00,VWS V14.00,2013-02-20 09:11:00,
2013-02-20 02:12:00,19.8,-2.3,0.00,WNW,302,0.0,0.0,37,0.00,,---,0.00,VWS V14.00,2013-02-20 09:12:00,
2013-02-20 02:16:00,19.8,-2.3,0.00,WNW,302,0.0,0.0,37,0.00,,---,0.00,VWS V14.00,2013-02-20 09:16:00,
2013-02-20 02:17:00,19.8,-2.3,0.00,WNW,300,0.0,0.0,37,0.00,,---,0.00,VWS V14.00,2013-02-20 09:17:00,
2013-02-20 02:21:00,19.8,-2.3,0.00,WNW,300,0.0,0.0,37,0.00,,---,0.00,VWS V14.00,2013-02-20 09:21:00,
2013-02-20 02:22:00,19.8,-2.3,0.00,WNW,300,0.0,0.0,37,0.00,,---,0.00,VWS V14.00,2013-02-20 09:22:00,
2013-02-20 02:26:00,19.8,-2.3,0.00,WNW,300,0.0,0.0,37,0.00,,---,0.00,VWS V14.00,2013-02-20 09:26:00,
2013-02-20 02:27:00,19.6,-2.5,0.00,WNW,300,0.0,0.0,37,0.00,,---,0.00,VWS V14.00,2013-02-20 09:27:00,
2013-02-20 02:31:00,19.6,-2.5,0.00,WNW,300,0.0,0.0,37,0.00,,---,0.00,VWS V14.00,2013-02-20 09:31:00,
2013-02-20 02:32:00,19.6,-2.5,0.00,WNW,300,0.0,0.0,37,0.00,,---,0.00,VWS V14.00,2013-02-20 09:32:00,
2013-02-20 02:36:00,19.6,-2.5,0.00,WNW,295,0.0,0.0,37,0.00,,---,0.00,VWS V14.00,2013-02-20 09:36:00,
2013-02-20 02:37:00,19.6,-2.5,0.00,WNW,299,0.0,0.0,37,0.00,,---,0.00,VWS V14.00,2013-02-20 09:37:00,
2013-02-20 02:41:00,19.4,-2.6,0.00,West,273,0.0,0.0,37,0.00,,---,0.00,VWS V14.00,2013-02-20 09:41:00,
2013-02-20 02:43:00,19.4,-2.6,0.00,West,260,0.0,0.0,37,0.00,,---,0.00,VWS V14.00,2013-02-20 09:43:00,
2013-02-20 02:46:00,19.4,-2.0,0.00,West,262,0.0,0.0,38,0.00,,---,0.00,VWS V14.00,2013-02-20 09:46:00,
2013-02-20 02:48:00,19.2,-2.2,0.00,WSW,257,0.0,0.0,38,0.00,,---,0.00,VWS V14.00,2013-02-20 09:48:00,
2013-02-20 02:51:00,19.2,-2.2,0.00,WSW,257,0.0,0.0,38,0.00,,---,0.00,VWS V14.00,2013-02-20 09:51:00,
2013-02-20 02:52:00,19.2,-2.8,0.00,West,262,0.0,0.0,37,0.00,,---,0.00,VWS V14.00,2013-02-20 09:52:00,
2013-02-20 02:53:00,19.2,-2.2,0.00,West,262,0.0,0.0,38,0.00,,---,0.00,VWS V14.00,2013-02-20 09:53:00,
2013-02-20 02:56:00,19.2,-2.8,0.00,WSW,253,0.0,0.0,37,0.00,,---,0.00,VWS V14.00,2013-02-20 09:56:00,
2013-02-20 02:57:00,19.2,-2.8,0.00,WSW,252,0.0,0.0,37,0.00,,---,0.00,VWS V14.00,2013-02-20 09:57:00,
2013-02-20 02:58:00,19.2,-2.8,0.00,West,262,0.0,0.0,37,0.00,,---,0.00,VWS V14.00,2013-02-20 09:58:00,
2013-02-20 03:01:00,19.2,-2.2,0.00,West,262,0.0,0.0,38,0.00,,---,0.00,VWS V14.00,2013-02-20 10:01:00,
2013-02-20 03:02:00,19.2,-2.2,0.00,West,262,0.0,0.0,38,0.00,,---,0.00,VWS V14.00,2013-02-20 10:02:00,
2013-02-20 03:03:00,19.2,-2.2,0.00,WSW,256,0.0,0.0,38,0.00,,---,0.00,VWS V14.00,2013-02-20 10:03:00,
2013-02-20 03:07:00,19.0,-2.9,0.00,West,262,0.0,0.0,37,0.00,,---,0.00,VWS V14.00,2013-02-20 10:07:00,
2013-02-20 03:08:00,19.0,-2.9,0.00,WSW,253,0.0,0.0,37,0.00,,---,0.00,VWS V14.00,2013-02-20 10:08:00,
2013-02-20 03:12:00,19.0,-2.9,0.00,West,262,0.0,0.0,37,0.00,,---,0.00,VWS V14.00,2013-02-20 10:12:00,
2013-02-20 03:13:00,19.0,-2.9,0.00,West,262,0.0,0.0,37,0.00,,---,0.00,VWS V14.00,2013-02-20 10:13:00,
2013-02-20 03:17:00,19.0,-2.4,0.00,West,262,0.0,0.0,38,0.00,,---,0.00,VWS V14.00,2013-02-20 10:17:00,
2013-02-20 03:18:00,19.0,-2.4,0.00,South,191,0.0,0.0,38,0.00,,---,0.00,VWS V14.00,2013-02-20 10:18:00,
2013-02-20 03:22:00,18.9,-2.5,0.00,WNW,294,0.0,2.7,38,0.00,,---,0.00,VWS V14.00,2013-02-20 10:22:00,
2013-02-20 03:23:00,18.9,-2.5,0.00,WNW,295,0.0,0.0,38,0.00,,---,0.00,VWS V14.00,2013-02-20 10:23:00,
2013-02-20 03:27:00,18.7,-2.7,0.00,WNW,294,0.0,0.0,38,0.00,,---,0.00,VWS V14.00,2013-02-20 10:27:00,
2013-02-20 03:28:00,18.7,-2.7,0.00,WNW,294,0.0,0.0,38,0.00,,---,0.00,VWS V14.00,2013-02-20 10:28:00,
2013-02-20 03:32:00,18.7,-2.7,0.00,WNW,294,0.0,0.0,38,0.00,,---,0.00,VWS V14.00,2013-02-20 10:32:00,
2013-02-20 03:33:00,18.7,-2.7,0.00,WNW,295,0.0,0.0,38,0.00,,---,0.00,VWS V14.00,2013-02-20 10:33:00,
2013-02-20 03:37:00,18.7,-2.7,0.00,WNW,294,0.0,0.0,38,0.00,,---,0.00,VWS V14.00,2013-02-20 10:37:00,
2013-02-20 03:38:00,18.7,-2.7,0.00,WNW,294,0.0,0.0,38,0.00,,---,0.00,VWS V14.00,2013-02-20 10:38:00,
2013-02-20 03:39:00,18.7,-2.7,0.00,WNW,294,0.0,0.0,38,0.00,,---,0.00,VWS V14.00,2013-02-20 10:39:00,
2013-02-20 03:42:00,18.7,-2.7,0.00,WNW,294,0.0,0.0,38,0.00,,---,0.00,VWS V14.00,2013-02-20 10:42:00,
2013-02-20 03:43:00,18.5,-2.9,0.00,WNW,294,0.0,0.0,38,0.00,,---,0.00,VWS V14.00,2013-02-20 10:43:00,
2013-02-20 03:44:00,18.5,-2.9,0.00,WNW,294,0.0,0.0,38,0.00,,---,0.00,VWS V14.00,2013-02-20 10:44:00,
2013-02-20 03:47:00,18.7,-2.7,0.00,WNW,294,0.0,0.0,38,0.00,,---,0.00,VWS V14.00,2013-02-20 10:47:00,
2013-02-20 03:48:00,18.7,-2.7,0.00,WNW,294,0.0,0.0,38,0.00,,---,0.00,VWS V14.00,2013-02-20 10:48:00,
2013-02-20 03:49:00,18.7,-2.7,0.00,WNW,294,0.0,0.0,38,0.00,,---,0.00,VWS V14.00,2013-02-20 10:49:00,
2013-02-20 03:52:00,18.5,-2.9,0.00,WNW,294,0.0,0.0,38,0.00,,---,0.00,VWS V14.00,2013-02-20 10:52:00,
2013-02-20 03:53:00,18.5,-2.9,0.00,WNW,290,0.0,0.0,38,0.00,,---,0.00,VWS V14.00,2013-02-20 10:53:00,
2013-02-20 03:54:00,18.5,-2.9,0.00,WNW,294,0.0,0.0,38,0.00,,---,0.00,VWS V14.00,2013-02-20 10:54:00,
2013-02-20 03:58:00,18.5,-2.9,0.00,WNW,284,0.0,0.0,38,0.00,,---,0.00,VWS V14.00,2013-02-20 10:58:00,
2013-02-20 03:59:00,18.5,-2.9,0.00,WNW,287,0.0,0.0,38,0.00,,---,0.00,VWS V14.00,2013-02-20 10:59:00,
2013-02-20 04:03:00,18.5,-2.9,0.00,WNW,294,0.0,0.0,38,0.00,,---,0.00,VWS V14.00,2013-02-20 11:03:00,
2013-02-20 04:04:00,18.5,-2.9,0.00,WNW,294,0.0,0.0,38,0.00,,---,0.00,VWS V14.00,2013-02-20 11:04:00,
2013-02-20 04:08:00,18.5,-2.9,0.00,WNW,294,0.0,0.0,38,0.00,,---,0.00,VWS V14.00,2013-02-20 11:08:00,
2013-02-20 04:09:00,18.5,-2.9,0.00,WNW,294,0.0,0.0,38,0.00,,---,0.00,VWS V14.00,2013-02-20 11:09:00,
2013-02-20 04:13:00,18.5,-2.9,0.00,WNW,294,0.0,0.0,38,0.00,,---,0.00,VWS V14.00,2013-02-20 11:13:00,
2013-02-20 04:14:00,18.5,-2.9,0.00,WNW,284,0.0,0.0,38,0.00,,---,0.00,VWS V14.00,2013-02-20 11:14:00,
2013-02-20 04:18:00,18.7,-2.7,0.00,WNW,291,0.0,0.0,38,0.00,,---,0.00,VWS V14.00,2013-02-20 11:18:00,
2013-02-20 04:19:00,18.7,-2.7,0.00,WNW,286,0.0,0.0,38,0.00,,---,0.00,VWS V14.00,2013-02-20 11:19:00,
2013-02-20 04:23:00,18.7,-2.7,0.00,WNW,294,0.0,0.0,38,0.00,,---,0.00,VWS V14.00,2013-02-20 11:23:00,
2013-02-20 04:24:00,18.7,-2.7,0.00,WNW,294,0.0,0.0,38,0.00,,---,0.00,VWS V14.00,2013-02-20 11:24:00,
2013-02-20 04:25:00,18.7,-2.7,0.00,WNW,288,0.0,0.0,38,0.00,,---,0.00,VWS V14.00,2013-02-20 11:25:00,
2013-02-20 04:29:00,18.7,-2.7,0.00,WNW,284,0.0,0.0,38,0.00,,---,0.00,VWS V14.00,2013-02-20 11:29:00,
2013-02-20 04:30:00,18.7,-2.7,0.00,WNW,294,0.0,0.0,38,0.00,,---,0.00,VWS V14.00,2013-02-20 11:30:00,
2013-02-20 04:34:00,18.7,-2.7,0.00,WNW,288,0.0,0.0,38,0.00,,---,0.00,VWS V14.00,2013-02-20 11:34:00,
2013-02-20 04:35:00,18.7,-2.7,0.00,WNW,284,0.0,0.0,38,0.00,,---,0.00,VWS V14.00,2013-02-20 11:35:00,
2013-02-20 04:39:00,18.7,-2.7,0.00,WNW,294,0.0,0.0,38,0.00,,---,0.00,VWS V14.00,2013-02-20 11:39:00,
2013-02-20 04:40:00,18.7,-2.7,0.00,WNW,292,0.0,0.0,38,0.00,,---,0.00,VWS V14.00,2013-02-20 11:40:00,
2013-02-20 04:44:00,18.7,-2.7,0.00,WNW,295,0.0,0.0,38,0.00,,---,0.00,VWS V14.00,2013-02-20 11:44:00,
2013-02-20 04:45:00,18.7,-2.7,0.00,WNW,294,0.0,0.0,38,0.00,,---,0.00,VWS V14.00,2013-02-20 11:45:00,
2013-02-20 04:49:00,18.7,-2.7,0.00,WNW,295,0.0,0.0,38,0.00,,---,0.00,VWS V14.00,2013-02-20 11:49:00,
2013-02-20 04:50:00,18.7,-2.7,0.00,WNW,294,0.0,0.0,38,0.00,,---,0.00,VWS V14.00,2013-02-20 11:50:00,
2013-02-20 04:51:00,18.7,-2.7,0.00,WNW,295,0.0,0.0,38,0.00,,---,0.00,VWS V14.00,2013-02-20 11:51:00,
2013-02-20 04:54:00,18.7,-2.7,0.00,WNW,295,0.0,0.0,38,0.00,,---,0.00,VWS V14.00,2013-02-20 11:54:00,
2013-02-20 04:55:00,18.7,-2.7,0.00,WNW,294,0.0,0.0,38,0.00,,---,0.00,VWS V14.00,2013-02-20 11:55:00,
2013-02-20 04:56:00,18.7,-2.7,0.00,WNW,294,0.0,0.0,38,0.00,,---,0.00,VWS V14.00,2013-02-20 11:56:00,
2013-02-20 04:59:00,18.7,-2.7,0.00,WNW,294,0.0,0.0,38,0.00,,---,0.00,VWS V14.00,2013-02-20 11:59:00,
2013-02-20 05:00:00,18.7,-2.7,0.00,WNW,295,0.0,0.0,38,0.00,,---,0.00,VWS V14.00,2013-02-20 12:00:00,
2013-02-20 05:01:00,18.7,-2.7,0.00,West,269,0.0,0.0,38,0.00,,---,0.00,VWS V14.00,2013-02-20 12:01:00,
2013-02-20 05:04:00,18.7,-2.7,0.00,SSW,197,0.0,0.0,38,0.00,,---,0.00,VWS V14.00,2013-02-20 12:04:00,
2013-02-20 05:05:00,18.7,-2.7,0.00,SSW,199,0.0,0.0,38,0.00,,---,0.00,VWS V14.00,2013-02-20 12:05:00,
2013-02-20 05:06:00,18.7,-2.7,0.00,SSW,195,0.0,0.0,38,0.00,,---,0.00,VWS V14.00,2013-02-20 12:06:00,
2013-02-20 05:09:00,18.7,-2.7,0.00,SSW,202,0.0,0.0,38,0.00,,---,0.00,VWS V14.00,2013-02-20 12:09:00,
2013-02-20 05:10:00,18.7,-2.7,0.00,SSW,197,0.0,0.0,38,0.00,,---,0.00,VWS V14.00,2013-02-20 12:10:00,
2013-02-20 05:11:00,18.7,-2.7,0.00,SSW,202,0.0,0.0,38,0.00,,---,0.00,VWS V14.00,2013-02-20 12:11:00,
2013-02-20 05:14:00,18.7,-2.7,0.00,SSW,202,0.0,0.0,38,0.00,,---,0.00,VWS V14.00,2013-02-20 12:14:00,
2013-02-20 05:15:00,18.7,-2.7,0.00,SSE,153,2.7,2.7,38,0.00,,---,0.00,VWS V14.00,2013-02-20 12:15:00,
2013-02-20 05:16:00,18.7,-2.7,0.00,SE,139,2.2,2.7,38,0.00,,---,0.00,VWS V14.00,2013-02-20 12:16:00,
2013-02-20 05:19:00,18.7,-2.7,0.00,SE,138,0.0,0.0,38,0.00,,---,0.00,VWS V14.00,2013-02-20 12:19:00,
2013-02-20 05:20:00,18.7,-2.7,0.00,SE,138,0.0,0.0,38,0.00,,---,0.00,VWS V14.00,2013-02-20 12:20:00,
2013-02-20 05:21:00,18.7,-2.7,0.00,SE,137,0.0,0.0,38,0.00,,---,0.00,VWS V14.00,2013-02-20 12:21:00,
2013-02-20 05:24:00,18.7,-2.7,0.00,SE,138,0.0,0.0,38,0.00,,---,0.00,VWS V14.00,2013-02-20 12:24:00,
2013-02-20 05:25:00,18.7,-2.7,0.00,SE,136,0.0,0.0,38,0.00,,---,0.00,VWS V14.00,2013-02-20 12:25:00,
2013-02-20 05:26:00,18.7,-2.7,0.00,SE,138,0.0,0.0,38,0.00,,---,0.00,VWS V14.00,2013-02-20 12:26:00,
2013-02-20 05:29:00,18.7,-2.7,0.00,SE,137,0.0,0.0,38,0.00,,---,0.00,VWS V14.00,2013-02-20 12:29:00,
2013-02-20 05:30:00,18.7,-2.7,0.00,SE,138,0.0,0.0,38,0.00,,---,0.00,VWS V14.00,2013-02-20 12:30:00,
2013-02-20 05:31:00,18.7,-2.7,0.00,SE,138,0.0,0.0,38,0.00,,---,0.00,VWS V14.00,2013-02-20 12:31:00,
2013-02-20 05:34:00,18.7,-2.7,0.00,SE,137,0.0,0.0,38,0.00,,---,0.00,VWS V14.00,2013-02-20 12:34:00,
2013-02-20 05:35:00,18.7,-2.7,0.00,SE,137,0.0,0.0,38,0.00,,---,0.00,VWS V14.00,2013-02-20 12:35:00,
2013-02-20 05:36:00,18.7,-2.7,0.00,SE,138,0.0,0.0,38,0.00,,---,0.00,VWS V14.00,2013-02-20 12:36:00,
2013-02-20 05:40:00,18.7,-2.7,0.00,SE,137,0.0,0.0,38,0.00,,---,0.00,VWS V14.00,2013-02-20 12:40:00,
2013-02-20 05:42:00,18.7,-2.7,0.00,SE,138,0.0,0.0,38,0.00,,---,0.00,VWS V14.00,2013-02-20 12:42:00,
2013-02-20 05:45:00,18.5,-2.9,0.00,SE,138,0.0,0.0,38,0.00,,---,0.00,VWS V14.00,2013-02-20 12:45:00,
2013-02-20 05:46:00,18.5,-2.9,0.00,SE,137,0.0,0.0,38,0.00,,---,0.00,VWS V14.00,2013-02-20 12:46:00,
2013-02-20 05:47:00,18.5,-2.9,0.00,SE,137,0.0,0.0,38,0.00,,---,0.00,VWS V14.00,2013-02-20 12:47:00,
2013-02-20 05:50:00,18.5,-2.9,0.00,SE,137,0.0,0.0,38,0.00,,---,0.00,VWS V14.00,2013-02-20 12:50:00,
2013-02-20 05:51:00,18.5,-2.9,0.00,SE,138,0.0,0.0,38,0.00,,---,0.00,VWS V14.00,2013-02-20 12:51:00,
2013-02-20 05:52:00,18.5,-2.9,0.00,SE,137,0.0,0.0,38,0.00,,---,0.00,VWS V14.00,2013-02-20 12:52:00,
2013-02-20 05:55:00,18.5,-2.9,0.00,SE,137,0.0,0.0,38,0.00,,---,0.00,VWS V14.00,2013-02-20 12:55:00,
2013-02-20 05:56:00,18.5,-2.9,0.00,SE,137,0.0,0.0,38,0.00,,---,0.00,VWS V14.00,2013-02-20 12:56:00,
2013-02-20 05:57:00,18.5,-2.9,0.00,SE,137,0.0,0.0,38,0.00,,---,0.00,VWS V14.00,2013-02-20 12:57:00,
2013-02-20 06:00:00,18.5,-2.9,0.00,SE,138,0.0,0.0,38,0.00,,---,0.00,VWS V14.00,2013-02-20 13:00:00,
2013-02-20 06:01:00,18.5,-2.9,0.00,East,100,4.5,4.5,38,0.00,,---,0.00,VWS V14.00,2013-02-20 13:01:00,
2013-02-20 06:02:00,18.5,-2.9,0.00,ESE,103,0.0,0.0,38,0.00,,---,0.00,VWS V14.00,2013-02-20 13:02:00,
2013-02-20 06:05:00,18.5,-2.9,0.00,ESE,103,0.0,0.0,38,0.00,,---,0.00,VWS V14.00,2013-02-20 13:05:00,
2013-02-20 06:06:00,18.5,-2.9,0.00,ESE,103,0.0,0.0,38,0.00,,---,0.00,VWS V14.00,2013-02-20 13:06:00,
2013-02-20 06:07:00,18.5,-2.9,0.00,ESE,103,0.0,0.0,38,0.00,,---,0.00,VWS V14.00,2013-02-20 13:07:00,
2013-02-20 06:10:00,18.5,-2.9,0.00,ESE,103,0.0,0.0,38,0.00,,---,0.00,VWS V14.00,2013-02-20 13:10:00,
2013-02-20 06:11:00,18.5,-2.9,0.00,ESE,103,0.0,0.0,38,0.00,,---,0.00,VWS V14.00,2013-02-20 13:11:00,
2013-02-20 06:12:00,18.5,-2.9,0.00,ESE,103,0.0,0.0,38,0.00,,---,0.00,VWS V14.00,2013-02-20 13:12:00,
2013-02-20 06:16:00,18.5,-2.9,0.00,ESE,102,0.0,2.7,38,0.00,,---,0.00,VWS V14.00,2013-02-20 13:16:00,
2013-02-20 06:17:00,18.5,-2.9,0.00,ESE,102,0.0,0.0,38,0.00,,---,0.00,VWS V14.00,2013-02-20 13:17:00,
2013-02-20 06:21:00,18.5,-2.3,0.00,ESE,102,0.0,0.0,39,0.00,,---,0.00,VWS V14.00,2013-02-20 13:21:00,
2013-02-20 06:22:00,18.5,-2.9,0.00,ESE,103,0.0,0.0,38,0.00,,---,0.00,VWS V14.00,2013-02-20 13:22:00,
2013-02-20 06:26:00,18.5,-2.3,0.00,ESE,103,0.0,0.0,39,0.00,,---,0.00,VWS V14.00,2013-02-20 13:26:00,
2013-02-20 06:27:00,18.5,-2.3,0.00,ESE,103,0.0,0.0,39,0.00,,---,0.00,VWS V14.00,2013-02-20 13:27:00,
2013-02-20 06:31:00,18.7,-2.2,0.00,East,99,0.0,0.0,39,0.00,,---,0.00,VWS V14.00,2013-02-20 13:31:00,
2013-02-20 06:32:00,18.7,-2.2,0.00,ESE,103,0.0,0.0,39,0.00,,---,0.00,VWS V14.00,2013-02-20 13:32:00,
2013-02-20 06:36:00,18.7,-2.2,0.00,ESE,102,0.0,0.0,39,0.00,,---,0.00,VWS V14.00,2013-02-20 13:36:00,
2013-02-20 06:37:00,18.7,-2.2,0.00,ESE,103,0.0,0.0,39,0.00,,---,0.00,VWS V14.00,2013-02-20 13:37:00,
2013-02-20 06:41:00,18.7,-2.2,0.00,ESE,103,0.0,0.0,39,0.00,,---,0.00,VWS V14.00,2013-02-20 13:41:00,
2013-02-20 06:42:00,18.7,-2.2,0.00,East,101,0.0,0.0,39,0.00,,---,0.00,VWS V14.00,2013-02-20 13:42:00,
2013-02-20 06:43:00,18.7,-2.2,0.00,ESE,103,0.0,0.0,39,0.00,,---,0.00,VWS V14.00,2013-02-20 13:43:00,
2013-02-20 06:46:00,18.7,-2.2,0.00,ESE,112,0.0,0.0,39,0.00,,---,0.00,VWS V14.00,2013-02-20 13:46:00,
2013-02-20 06:47:00,18.9,-2.0,0.00,ESE,112,0.0,0.0,39,0.00,,---,0.00,VWS V14.00,2013-02-20 13:47:00,
2013-02-20 06:48:00,18.9,-2.0,0.00,ESE,112,0.0,0.0,39,0.00,,---,0.00,VWS V14.00,2013-02-20 13:48:00,
2013-02-20 06:51:00,18.9,-2.0,0.00,ESE,111,0.0,0.0,39,0.00,,---,0.00,VWS V14.00,2013-02-20 13:51:00,
2013-02-20 06:52:00,18.9,-2.0,0.00,ESE,112,0.0,0.0,39,0.00,,---,0.00,VWS V14.00,2013-02-20 13:52:00,
2013-02-20 06:53:00,18.9,-2.0,0.00,ESE,112,0.0,0.0,39,0.00,,---,0.00,VWS V14.00,2013-02-20 13:53:00,
2013-02-20 06:56:00,18.9,-2.0,0.00,South,190,0.0,0.0,39,0.00,,---,0.00,VWS V14.00,2013-02-20 13:56:00,
2013-02-20 06:57:00,18.9,-2.0,0.00,South,190,0.0,0.0,39,0.00,,---,0.00,VWS V14.00,2013-02-20 13:57:00,
2013-02-20 06:58:00,18.9,-2.0,0.00,South,190,0.0,0.0,39,0.00,,---,0.00,VWS V14.00,2013-02-20 13:58:00,
2013-02-20 07:01:00,19.0,-1.8,0.00,South,186,0.0,0.0,39,0.00,,---,0.00,VWS V14.00,2013-02-20 14:01:00,
2013-02-20 07:02:00,19.0,-1.8,0.00,South,190,0.0,0.0,39,0.00,,---,0.00,VWS V14.00,2013-02-20 14:02:00,
2013-02-20 07:03:00,19.0,-1.8,0.00,South,190,0.0,0.0,39,0.00,,---,0.00,VWS V14.00,2013-02-20 14:03:00,
2013-02-20 07:07:00,19.0,-1.8,0.00,South,190,0.0,0.0,39,0.00,,---,0.00,VWS V14.00,2013-02-20 14:07:00,
2013-02-20 07:08:00,19.0,-1.8,0.00,South,190,0.0,0.0,39,0.00,,---,0.00,VWS V14.00,2013-02-20 14:08:00,
2013-02-20 07:12:00,19.0,-1.8,0.00,South,178,0.0,0.0,39,0.00,,---,0.00,VWS V14.00,2013-02-20 14:12:00,
2013-02-20 07:13:00,19.0,-1.8,0.00,South,178,0.0,0.0,39,0.00,,---,0.00,VWS V14.00,2013-02-20 14:13:00,
2013-02-20 07:17:00,19.2,-1.7,0.00,South,177,0.0,0.0,39,0.00,,---,0.00,VWS V14.00,2013-02-20 14:17:00,
2013-02-20 07:18:00,19.2,-1.7,0.00,South,177,0.0,0.0,39,0.00,,---,0.00,VWS V14.00,2013-02-20 14:18:00,
2013-02-20 07:22:00,19.2,-1.7,0.00,South,175,0.0,0.0,39,0.00,,---,0.00,VWS V14.00,2013-02-20 14:22:00,
2013-02-20 07:23:00,19.2,-1.7,0.00,South,177,0.0,0.0,39,0.00,,---,0.00,VWS V14.00,2013-02-20 14:23:00,
2013-02-20 07:27:00,19.2,-1.7,0.00,ESE,123,0.0,0.0,39,0.00,,---,0.00,VWS V14.00,2013-02-20 14:27:00,
2013-02-20 07:28:00,19.2,-1.7,0.00,ESE,122,0.0,0.0,39,0.00,,---,0.00,VWS V14.00,2013-02-20 14:28:00,
2013-02-20 07:32:00,19.4,-1.5,0.00,ESE,104,2.2,2.2,39,0.00,,---,0.00,VWS V14.00,2013-02-20 14:32:00,
2013-02-20 07:33:00,19.4,-1.5,0.00,ESE,104,0.0,0.0,39,0.00,,---,0.00,VWS V14.00,2013-02-20 14:33:00,
2013-02-20 07:34:00,19.4,-1.5,0.00,ESE,103,0.0,0.0,39,0.00,,---,0.00,VWS V14.00,2013-02-20 14:34:00,
2013-02-20 07:37:00,19.4,-1.5,0.00,East,100,0.0,0.0,39,0.00,,---,0.00,VWS V14.00,2013-02-20 14:37:00,
2013-02-20 07:38:00,19.6,-1.3,0.00,ESE,104,0.0,0.0,39,0.00,,---,0.00,VWS V14.00,2013-02-20 14:38:00,
2013-02-20 07:39:00,19.6,-1.3,0.00,ESE,104,0.0,0.0,39,0.00,,---,0.00,VWS V14.00,2013-02-20 14:39:00,
2013-02-20 07:42:00,19.6,-1.3,0.00,ESE,104,0.0,0.0,39,0.00,,---,0.00,VWS V14.00,2013-02-20 14:42:00,
2013-02-20 07:43:00,19.6,-1.3,0.00,ESE,120,0.0,0.0,39,0.00,,---,0.00,VWS V14.00,2013-02-20 14:43:00,
2013-02-20 07:44:00,19.6,-1.3,0.00,ESE,122,0.0,0.0,39,0.00,,---,0.00,VWS V14.00,2013-02-20 14:44:00,
2013-02-20 07:47:00,19.8,-1.2,0.00,SE,133,0.0,0.0,39,0.00,,---,0.00,VWS V14.00,2013-02-20 14:47:00,
2013-02-20 07:48:00,19.8,-1.2,0.00,SE,138,0.0,0.0,39,0.00,,---,0.00,VWS V14.00,2013-02-20 14:48:00,
2013-02-20 07:49:00,19.8,-1.2,0.00,SE,138,0.0,0.0,39,0.00,,---,0.00,VWS V14.00,2013-02-20 14:49:00,
2013-02-20 07:52:00,19.9,-1.0,0.00,SE,133,0.0,0.0,39,0.00,,---,0.00,VWS V14.00,2013-02-20 14:52:00,
2013-02-20 07:53:00,19.9,-1.0,0.00,SSE,167,0.0,0.0,39,0.00,,---,0.00,VWS V14.00,2013-02-20 14:53:00,
2013-02-20 07:54:00,19.9,-1.0,0.00,East,97,5.8,5.8,39,0.00,,---,0.00,VWS V14.00,2013-02-20 14:54:00,
2013-02-20 07:57:00,19.9,-1.0,0.00,ESE,119,2.7,2.7,39,0.00,,---,0.00,VWS V14.00,2013-02-20 14:57:00,
2013-02-20 07:59:00,20.1,-0.9,0.00,ESE,121,2.2,2.2,39,0.00,,---,0.00,VWS V14.00,2013-02-20 14:59:00,
2013-02-20 08:02:00,20.1,-0.9,0.00,ESE,121,0.0,0.0,39,0.00,,---,0.00,VWS V14.00,2013-02-20 15:02:00,
2013-02-20 08:04:00,20.1,-0.9,0.00,ESE,120,0.0,0.0,39,0.00,,---,0.00,VWS V14.00,2013-02-20 15:04:00,
2013-02-20 08:07:00,20.3,-0.7,0.00,East,95,0.0,0.0,39,0.00,,---,0.00,VWS V14.00,2013-02-20 15:07:00,
2013-02-20 08:09:00,20.3,-0.7,0.00,ESE,112,2.2,2.2,39,0.00,,---,0.00,VWS V14.00,2013-02-20 15:09:00,
2013-02-20 08:10:00,20.3,-0.7,0.00,East,84,0.0,2.7,39,0.00,,---,0.00,VWS V14.00,2013-02-20 15:10:00,
2013-02-20 08:12:00,20.3,-0.7,0.00,ESE,110,0.0,0.0,39,0.00,,---,0.00,VWS V14.00,2013-02-20 15:12:00,
2013-02-20 08:14:00,20.5,-0.5,0.00,East,96,0.0,0.0,39,0.00,,---,0.00,VWS V14.00,2013-02-20 15:14:00,
2013-02-20 08:15:00,20.5,-0.5,0.00,East,96,0.0,0.0,39,0.00,,---,0.00,VWS V14.00,2013-02-20 15:15:00,
2013-02-20 08:18:00,20.5,-0.5,0.00,East,99,0.0,0.0,39,0.00,,---,0.00,VWS V14.00,2013-02-20 15:18:00,
2013-02-20 08:19:00,20.5,-0.5,0.00,East,99,0.0,0.0,39,0.00,,---,0.00,VWS V14.00,2013-02-20 15:19:00,
2013-02-20 08:20:00,20.7,-0.4,0.00,East,99,0.0,0.0,39,0.00,,---,0.00,VWS V14.00,2013-02-20 15:20:00,
2013-02-20 08:23:00,20.7,0.2,0.00,SSE,155,0.0,0.0,40,0.00,,---,0.00,VWS V14.00,2013-02-20 15:23:00,
2013-02-20 08:24:00,20.8,0.3,0.00,SSE,159,0.0,0.0,40,0.00,,---,0.00,VWS V14.00,2013-02-20 15:24:00,
2013-02-20 08:25:00,20.8,0.3,0.00,SSE,159,0.0,0.0,40,0.00,,---,0.00,VWS V14.00,2013-02-20 15:25:00,
2013-02-20 08:28:00,21.0,0.5,0.00,SSE,159,0.0,0.0,40,0.00,,---,0.00,VWS V14.00,2013-02-20 15:28:00,
2013-02-20 08:29:00,21.0,0.5,0.00,SSE,159,0.0,0.0,40,0.00,,---,0.00,VWS V14.00,2013-02-20 15:29:00,
2013-02-20 08:30:00,21.0,0.5,0.00,SSE,159,0.0,0.0,40,0.00,,---,0.00,VWS V14.00,2013-02-20 15:30:00,
2013-02-20 08:33:00,21.2,0.7,0.00,SSW,213,0.0,0.0,40,0.00,,---,0.00,VWS V14.00,2013-02-20 15:33:00,
2013-02-20 08:34:00,21.2,0.7,0.00,SSW,206,0.0,0.0,40,0.00,,---,0.00,VWS V14.00,2013-02-20 15:34:00,
2013-02-20 08:35:00,21.2,0.7,0.00,SSW,213,0.0,0.0,40,0.00,,---,0.00,VWS V14.00,2013-02-20 15:35:00,
2013-02-20 08:38:00,21.2,0.7,0.00,SW,214,0.0,0.0,40,0.00,,---,0.00,VWS V14.00,2013-02-20 15:38:00,
2013-02-20 08:39:00,21.2,0.7,0.00,SSW,213,0.0,0.0,40,0.00,,---,0.00,VWS V14.00,2013-02-20 15:39:00,
2013-02-20 08:40:00,21.4,0.8,0.00,SSW,208,0.0,0.0,40,0.00,,---,0.00,VWS V14.00,2013-02-20 15:40:00,
2013-02-20 08:43:00,21.4,0.8,0.00,SSW,213,0.0,0.0,40,0.00,,---,0.00,VWS V14.00,2013-02-20 15:43:00,
2013-02-20 08:44:00,21.4,0.8,0.00,SW,214,0.0,0.0,40,0.00,,---,0.00,VWS V14.00,2013-02-20 15:44:00,
2013-02-20 08:45:00,21.6,1.0,0.00,SW,214,0.0,0.0,40,0.00,,---,0.00,VWS V14.00,2013-02-20 15:45:00,
2013-02-20 08:48:00,21.7,1.1,0.00,SSW,213,0.0,0.0,40,0.00,,---,0.00,VWS V14.00,2013-02-20 15:48:00,
2013-02-20 08:49:00,21.7,1.1,0.00,SW,214,0.0,0.0,40,0.00,,---,0.00,VWS V14.00,2013-02-20 15:49:00,
2013-02-20 08:50:00,21.7,1.1,0.00,SW,214,0.0,0.0,40,0.00,,---,0.00,VWS V14.00,2013-02-20 15:50:00,
2013-02-20 08:53:00,21.9,1.3,0.00,SSW,206,0.0,0.0,40,0.00,,---,0.00,VWS V14.00,2013-02-20 15:53:00,
2013-02-20 08:54:00,21.9,1.3,0.00,SW,214,0.0,0.0,40,0.00,,---,0.00,VWS V14.00,2013-02-20 15:54:00,
2013-02-20 08:55:00,21.9,1.3,0.00,SW,214,0.0,0.0,40,0.00,,---,0.00,VWS V14.00,2013-02-20 15:55:00,
2013-02-20 08:58:00,22.1,1.5,0.00,SSW,211,0.0,0.0,40,0.00,,---,0.00,VWS V14.00,2013-02-20 15:58:00,
2013-02-20 08:59:00,22.1,1.5,0.00,SSW,212,0.0,0.0,40,0.00,,---,0.00,VWS V14.00,2013-02-20 15:59:00,
2013-02-20 09:00:00,22.3,1.6,0.00,SSW,213,0.0,0.0,40,0.00,,---,0.00,VWS V14.00,2013-02-20 16:00:00,
2013-02-20 09:03:00,22.3,1.6,0.00,SSW,213,0.0,0.0,40,0.00,,---,0.00,VWS V14.00,2013-02-20 16:03:00,
2013-02-20 09:04:00,22.5,1.8,0.00,SSW,213,0.0,0.0,40,0.00,,---,0.00,VWS V14.00,2013-02-20 16:04:00,
2013-02-20 09:05:00,22.5,1.8,0.00,SW,214,0.0,0.0,40,0.00,,---,0.00,VWS V14.00,2013-02-20 16:05:00,
2013-02-20 09:06:00,22.5,1.8,0.00,SSW,213,0.0,0.0,40,0.00,,---,0.00,VWS V14.00,2013-02-20 16:06:00,
2013-02-20 09:08:00,22.6,2.0,0.00,SSW,213,0.0,0.0,40,0.00,,---,0.00,VWS V14.00,2013-02-20 16:08:00,
2013-02-20 09:09:00,22.6,2.0,0.00,SSW,213,0.0,0.0,40,0.00,,---,0.00,VWS V14.00,2013-02-20 16:09:00,
2013-02-20 09:10:00,22.6,2.0,0.00,SSW,213,0.0,0.0,40,0.00,,---,0.00,VWS V14.00,2013-02-20 16:10:00,
2013-02-20 09:11:00,22.8,2.1,0.00,SSW,210,0.0,0.0,40,0.00,,---,0.00,VWS V14.00,2013-02-20 16:11:00,
2013-02-20 09:13:00,22.8,2.1,0.00,SW,214,0.0,0.0,40,0.00,,---,0.00,VWS V14.00,2013-02-20 16:13:00,
2013-02-20 09:14:00,22.8,2.1,0.00,SW,214,0.0,0.0,40,0.00,,---,0.00,VWS V14.00,2013-02-20 16:14:00,
2013-02-20 09:16:00,22.8,2.1,0.00,SSW,213,0.0,0.0,40,0.00,,---,0.00,VWS V14.00,2013-02-20 16:16:00,
2013-02-20 09:18:00,23.0,2.3,0.00,SSW,208,0.0,0.0,40,0.00,,---,0.00,VWS V14.00,2013-02-20 16:18:00,
2013-02-20 09:19:00,23.0,2.3,0.00,SSW,213,0.0,0.0,40,0.00,,---,0.00,VWS V14.00,2013-02-20 16:19:00,
2013-02-20 09:21:00,23.2,1.9,0.00,SSW,213,0.0,0.0,39,0.00,,---,0.00,VWS V14.00,2013-02-20 16:21:00,
2013-02-20 09:23:00,23.4,2.6,0.00,SSW,213,0.0,0.0,40,0.00,,---,0.00,VWS V14.00,2013-02-20 16:23:00,
2013-02-20 09:24:00,23.4,2.6,0.00,SSW,213,0.0,0.0,40,0.00,,---,0.00,VWS V14.00,2013-02-20 16:24:00,
2013-02-20 09:26:00,23.4,2.6,0.00,SW,214,0.0,0.0,40,0.00,,---,0.00,VWS V14.00,2013-02-20 16:26:00,
2013-02-20 09:28:00,23.5,2.8,0.00,SSW,211,0.0,0.0,40,0.00,,---,0.00,VWS V14.00,2013-02-20 16:28:00,
2013-02-20 09:29:00,23.5,2.8,0.00,SSW,212,0.0,0.0,40,0.00,,---,0.00,VWS V14.00,2013-02-20 16:29:00,
2013-02-20 09:31:00,23.7,2.9,0.00,SSW,213,0.0,0.0,40,0.00,,---,0.00,VWS V14.00,2013-02-20 16:31:00,
2013-02-20 09:33:00,24.1,3.3,0.00,SW,214,0.0,0.0,40,0.00,,---,0.00,VWS V14.00,2013-02-20 16:33:00,
2013-02-20 09:35:00,24.3,3.4,0.00,SSW,213,0.0,0.0,40,0.00,,---,0.00,VWS V14.00,2013-02-20 16:35:00,
2013-02-20 09:36:00,24.4,3.6,0.00,SSW,213,0.0,0.0,40,0.00,,---,0.00,VWS V14.00,2013-02-20 16:36:00,
2013-02-20 09:38:00,24.4,3.6,0.00,SW,214,0.0,0.0,40,0.00,,---,0.00,VWS V14.00,2013-02-20 16:38:00,
2013-02-20 09:40:00,24.4,3.6,0.00,SW,214,0.0,0.0,40,0.00,,---,0.00,VWS V14.00,2013-02-20 16:40:00,
2013-02-20 09:41:00,24.4,3.6,0.00,SW,214,0.0,0.0,40,0.00,,---,0.00,VWS V14.00,2013-02-20 16:41:00,
2013-02-20 09:43:00,24.8,3.4,0.00,SW,216,0.0,0.0,39,0.00,,---,0.00,VWS V14.00,2013-02-20 16:43:00,
2013-02-20 09:45:00,24.8,3.4,0.00,SW,215,0.0,0.0,39,0.00,,---,0.00,VWS V14.00,2013-02-20 16:45:00,
2013-02-20 09:46:00,25.0,3.5,0.00,SW,216,0.0,0.0,39,0.00,,---,0.00,VWS V14.00,2013-02-20 16:46:00,
2013-02-20 09:48:00,25.2,3.7,0.00,SSW,209,0.0,0.0,39,0.00,,---,0.00,VWS V14.00,2013-02-20 16:48:00,
2013-02-20 09:50:00,25.2,3.7,0.00,SSW,211,0.0,0.0,39,0.00,,---,0.00,VWS V14.00,2013-02-20 16:50:00,
2013-02-20 09:51:00,25.3,3.9,0.00,SW,216,0.0,0.0,39,0.00,,---,0.00,VWS V14.00,2013-02-20 16:51:00,
2013-02-20 09:53:00,25.3,3.9,0.00,SW,216,0.0,0.0,39,0.00,,---,0.00,VWS V14.00,2013-02-20 16:53:00,
2013-02-20 09:55:00,25.3,3.9,0.00,SW,216,0.0,0.0,39,0.00,,---,0.00,VWS V14.00,2013-02-20 16:55:00,
2013-02-20 09:56:00,25.5,4.0,0.00,SW,216,0.0,0.0,39,0.00,,---,0.00,VWS V14.00,2013-02-20 16:56:00,
2013-02-20 09:58:00,25.5,4.0,0.00,SW,216,0.0,0.0,39,0.00,,---,0.00,VWS V14.00,2013-02-20 16:58:00,
2013-02-20 10:00:00,25.7,4.2,0.00,SW,215,0.0,0.0,39,0.00,,---,0.00,VWS V14.00,2013-02-20 17:00:00,
2013-02-20 10:01:00,25.9,4.3,0.00,SW,216,0.0,0.0,39,0.00,,---,0.00,VWS V14.00,2013-02-20 17:01:00,
2013-02-20 10:04:00,26.1,4.5,0.00,SW,216,0.0,0.0,39,0.00,,---,0.00,VWS V14.00,2013-02-20 17:04:00,
2013-02-20 10:05:00,26.1,4.5,0.00,SW,216,0.0,0.0,39,0.00,,---,0.00,VWS V14.00,2013-02-20 17:05:00,
2013-02-20 10:06:00,26.1,4.5,0.00,SW,216,0.0,0.0,39,0.00,,---,0.00,VWS V14.00,2013-02-20 17:06:00,
2013-02-20 10:09:00,26.2,4.7,0.00,SE,143,2.7,2.7,39,0.00,,---,0.00,VWS V14.00,2013-02-20 17:09:00,
2013-02-20 10:10:00,26.2,4.7,0.00,South,175,0.0,0.0,39,0.00,,---,0.00,VWS V14.00,2013-02-20 17:10:00,
2013-02-20 10:11:00,26.2,4.7,0.00,South,175,0.0,0.0,39,0.00,,---,0.00,VWS V14.00,2013-02-20 17:11:00,
2013-02-20 10:14:00,26.4,5.4,0.00,South,175,0.0,0.0,40,0.00,,---,0.00,VWS V14.00,2013-02-20 17:14:00,
2013-02-20 10:15:00,26.4,5.4,0.00,South,175,0.0,0.0,40,0.00,,---,0.00,VWS V14.00,2013-02-20 17:15:00,
2013-02-20 10:16:00,26.6,5.6,0.00,South,175,0.0,0.0,40,0.00,,---,0.00,VWS V14.00,2013-02-20 17:16:00,
2013-02-20 10:17:00,26.6,5.6,0.00,South,175,0.0,0.0,40,0.00,,---,0.00,VWS V14.00,2013-02-20 17:17:00,
2013-02-20 10:19:00,26.8,5.2,0.00,SE,142,3.1,4.0,39,0.00,,---,0.00,VWS V14.00,2013-02-20 17:19:00,
2013-02-20 10:20:00,27.0,5.9,0.00,SE,142,0.0,0.0,40,0.00,,---,0.00,VWS V14.00,2013-02-20 17:20:00,
2013-02-20 10:22:00,27.0,5.9,0.00,SE,142,0.0,0.0,40,0.00,,---,0.00,VWS V14.00,2013-02-20 17:22:00,
2013-02-20 10:24:00,27.1,6.0,0.00,SE,133,0.0,0.0,40,0.00,,---,0.00,VWS V14.00,2013-02-20 17:24:00,
2013-02-20 10:25:00,27.1,6.0,0.00,SE,130,0.0,0.0,40,0.00,,---,0.00,VWS V14.00,2013-02-20 17:25:00,
2013-02-20 10:26:00,27.3,6.2,0.00,SE,130,0.0,0.0,40,0.00,,---,0.00,VWS V14.00,2013-02-20 17:26:00,
2013-02-20 10:27:00,27.3,6.2,0.00,ESE,123,0.0,0.0,40,0.00,,---,0.00,VWS V14.00,2013-02-20 17:27:00,
2013-02-20 10:29:00,27.5,6.4,0.00,SE,136,0.0,0.0,40,0.00,,---,0.00,VWS V14.00,2013-02-20 17:29:00,
2013-02-20 10:30:00,27.7,6.5,0.00,SSW,210,0.0,0.0,40,0.00,,---,0.00,VWS V14.00,2013-02-20 17:30:00,
2013-02-20 10:32:00,27.9,6.7,0.00,SW,216,0.0,0.0,40,0.00,,---,0.00,VWS V14.00,2013-02-20 17:32:00,
2013-02-20 10:34:00,28.0,6.8,0.00,SW,222,0.0,0.0,40,0.00,,---,0.00,VWS V14.00,2013-02-20 17:34:00,
2013-02-20 10:35:00,28.0,6.8,0.00,SW,231,0.0,0.0,40,0.00,,---,0.00,VWS V14.00,2013-02-20 17:35:00,
2013-02-20 10:37:00,28.2,7.0,0.00,West,259,0.0,0.0,40,0.00,,---,0.00,VWS V14.00,2013-02-20 17:37:00,
2013-02-20 10:38:00,28.4,7.2,0.00,NW,304,0.0,0.0,40,0.00,,---,0.00,VWS V14.00,2013-02-20 17:38:00,
2013-02-20 10:39:00,28.6,6.8,0.00,WSW,258,0.0,0.0,39,0.00,,---,0.00,VWS V14.00,2013-02-20 17:39:00,
2013-02-20 10:40:00,28.6,6.8,0.00,SW,235,0.0,0.0,39,0.00,,---,0.00,VWS V14.00,2013-02-20 17:40:00,
2013-02-20 10:42:00,28.8,6.9,0.00,SW,235,0.0,0.0,39,0.00,,---,0.00,VWS V14.00,2013-02-20 17:42:00,
2013-02-20 10:43:00,28.8,6.9,0.00,WNW,300,2.2,2.2,39,0.00,,---,0.00,VWS V14.00,2013-02-20 17:43:00,
2013-02-20 10:44:00,28.9,7.1,0.00,SW,222,0.0,0.0,39,0.00,,---,0.00,VWS V14.00,2013-02-20 17:44:00,
2013-02-20 10:46:00,29.1,7.3,0.00,NW,306,3.6,3.6,39,0.00,,---,0.00,VWS V14.00,2013-02-20 17:46:00,
2013-02-20 10:47:00,29.1,7.3,0.00,WSW,240,0.0,0.0,39,0.00,,---,0.00,VWS V14.00,2013-02-20 17:47:00,
2013-02-20 10:48:00,29.3,7.4,0.00,WSW,240,0.0,0.0,39,0.00,,---,0.00,VWS V14.00,2013-02-20 17:48:00,
2013-02-20 10:50:00,29.5,7.6,0.00,WSW,239,0.0,0.0,39,0.00,,---,0.00,VWS V14.00,2013-02-20 17:50:00,
2013-02-20 10:51:00,29.5,7.6,0.00,WSW,240,0.0,0.0,39,0.00,,---,0.00,VWS V14.00,2013-02-20 17:51:00,
2013-02-20 10:52:00,29.5,7.6,0.00,West,260,0.0,0.0,39,0.00,,---,0.00,VWS V14.00,2013-02-20 17:52:00,
2013-02-20 10:53:00,29.7,7.8,0.00,West,261,0.0,0.0,39,0.00,,---,0.00,VWS V14.00,2013-02-20 17:53:00,
2013-02-20 10:55:00,29.7,7.8,0.00,West,261,0.0,0.0,39,0.00,,---,0.00,VWS V14.00,2013-02-20 17:55:00,
2013-02-20 10:56:00,29.7,7.8,0.00,West,260,0.0,0.0,39,0.00,,---,0.00,VWS V14.00,2013-02-20 17:56:00,
2013-02-20 10:57:00,29.8,7.9,0.00,WSW,238,0.0,0.0,39,0.00,,---,0.00,VWS V14.00,2013-02-20 17:57:00,
2013-02-20 10:58:00,29.8,7.9,0.00,WSW,238,0.0,0.0,39,0.00,,---,0.00,VWS V14.00,2013-02-20 17:58:00,
2013-02-20 11:00:00,30.0,8.1,0.00,SW,220,0.0,0.0,39,0.00,,---,0.00,VWS V14.00,2013-02-20 18:00:00,
2013-02-20 11:01:00,30.2,8.2,0.00,South,181,0.0,0.0,39,0.00,,---,0.00,VWS V14.00,2013-02-20 18:01:00,
2013-02-20 11:02:00,30.2,8.2,0.00,WSW,250,0.0,0.0,39,0.00,,---,0.00,VWS V14.00,2013-02-20 18:02:00,
2013-02-20 11:03:00,30.2,8.2,0.00,SE,128,3.6,3.6,39,0.00,,---,0.00,VWS V14.00,2013-02-20 18:03:00,
2013-02-20 11:05:00,30.4,7.8,0.00,ESE,116,3.1,3.6,38,0.00,,---,0.00,VWS V14.00,2013-02-20 18:05:00,
2013-02-20 11:06:00,30.4,7.8,0.00,ESE,119,2.7,2.7,38,0.00,,---,0.00,VWS V14.00,2013-02-20 18:06:00,
2013-02-20 11:07:00,30.6,8.0,0.00,ENE,77,0.0,0.0,38,0.00,,---,0.00,VWS V14.00,2013-02-20 18:07:00,
2013-02-20 11:09:00,30.6,8.0,0.00,ENE,77,0.0,0.0,38,0.00,,---,0.00,VWS V14.00,2013-02-20 18:09:00,
2013-02-20 11:10:00,30.7,8.1,0.00,ENE,77,0.0,0.0,38,0.00,,---,0.00,VWS V14.00,2013-02-20 18:10:00,
2013-02-20 11:11:00,30.9,8.3,0.00,ENE,77,0.0,0.0,38,0.00,,---,0.00,VWS V14.00,2013-02-20 18:11:00,
2013-02-20 11:13:00,31.1,8.5,0.00,ENE,68,0.0,0.0,38,0.00,,---,0.00,VWS V14.00,2013-02-20 18:13:00,
2013-02-20 11:14:00,31.1,8.5,0.00,East,98,0.0,2.7,38,0.00,,---,0.00,VWS V14.00,2013-02-20 18:14:00,
2013-02-20 11:15:00,31.1,8.5,0.00,WSW,237,2.2,2.2,38,0.00,,---,0.00,VWS V14.00,2013-02-20 18:15:00,
2013-02-20 11:16:00,31.3,8.6,0.00,SSW,196,0.0,0.0,38,0.00,,---,0.00,VWS V14.00,2013-02-20 18:16:00,
2013-02-20 11:18:00,31.5,8.8,0.00,WSW,256,0.0,0.0,38,0.00,,---,0.00,VWS V14.00,2013-02-20 18:18:00,
2013-02-20 11:19:00,31.5,8.8,0.00,WSW,257,0.0,0.0,38,0.00,,---,0.00,VWS V14.00,2013-02-20 18:19:00,
2013-02-20 11:20:00,31.5,8.8,0.00,SE,127,2.7,2.7,38,0.00,,---,0.00,VWS V14.00,2013-02-20 18:20:00,
2013-02-20 11:21:00,31.6,9.0,0.00,ESE,103,4.9,5.4,38,0.00,,---,0.00,VWS V14.00,2013-02-20 18:21:00,
2013-02-20 11:23:00,32.0,9.3,0.00,ESE,105,2.7,2.7,38,0.00,,---,0.00,VWS V14.00,2013-02-20 18:23:00,
2013-02-20 11:24:00,32.0,9.3,0.00,SE,131,0.0,4.0,38,0.00,,---,0.00,VWS V14.00,2013-02-20 18:24:00,
2013-02-20 11:25:00,32.2,9.4,0.00,East,100,0.0,4.0,38,0.00,,---,0.00,VWS V14.00,2013-02-20 18:25:00,
2013-02-20 11:26:00,32.2,9.4,0.00,ESE,123,0.0,2.7,38,0.00,,---,0.00,VWS V14.00,2013-02-20 18:26:00,
2013-02-20 11:29:00,32.4,9.6,0.00,ESE,122,0.0,0.0,38,0.00,,---,0.00,VWS V14.00,2013-02-20 18:29:00,
2013-02-20 11:30:00,32.5,9.8,0.00,WNW,291,0.0,0.0,38,0.00,,---,0.00,VWS V14.00,2013-02-20 18:30:00,
2013-02-20 11:31:00,32.7,9.9,0.00,WNW,286,0.0,0.0,38,0.00,,---,0.00,VWS V14.00,2013-02-20 18:31:00,
2013-02-20 11:34:00,32.7,9.3,0.00,ESE,119,3.1,3.1,37,0.00,,---,0.00,VWS V14.00,2013-02-20 18:34:00,
2013-02-20 11:35:00,32.9,9.5,0.00,SE,140,2.2,2.2,37,0.00,,---,0.00,VWS V14.00,2013-02-20 18:35:00,
2013-02-20 11:37:00,32.9,10.1,0.00,SW,223,0.0,0.0,38,0.00,,---,0.00,VWS V14.00,2013-02-20 18:37:00,
2013-02-20 11:39:00,33.1,10.2,0.00,SSW,207,0.0,0.0,38,0.00,,---,0.00,VWS V14.00,2013-02-20 18:39:00,
2013-02-20 11:40:00,33.3,9.8,0.00,South,172,0.0,4.0,37,0.00,,---,0.00,VWS V14.00,2013-02-20 18:40:00,
2013-02-20 11:42:00,33.3,10.4,0.00,SE,143,2.7,3.1,38,0.00,,---,0.00,VWS V14.00,2013-02-20 18:42:00,
2013-02-20 11:44:00,33.4,10.6,0.00,SE,125,5.8,5.8,38,0.00,,---,0.00,VWS V14.00,2013-02-20 18:44:00,
2013-02-20 11:46:00,33.6,10.7,0.00,South,184,0.0,0.0,38,0.00,,---,0.00,VWS V14.00,2013-02-20 18:46:00,
2013-02-20 11:47:00,33.6,10.7,0.00,SSE,165,0.0,2.2,38,0.00,,---,0.00,VWS V14.00,2013-02-20 18:47:00,
2013-02-20 11:49:00,33.8,10.3,0.00,SW,218,0.0,4.0,37,0.00,,---,0.00,VWS V14.00,2013-02-20 18:49:00,
2013-02-20 11:51:00,33.8,10.3,0.00,WSW,256,2.7,3.1,37,0.00,,---,0.00,VWS V14.00,2013-02-20 18:51:00,
2013-02-20 11:52:00,34.0,10.5,0.00,SE,131,2.7,4.0,37,0.00,,---,0.00,VWS V14.00,2013-02-20 18:52:00,
2013-02-20 11:54:00,34.0,10.5,0.00,SSE,168,0.0,2.7,37,0.00,,---,0.00,VWS V14.00,2013-02-20 18:54:00,
2013-02-20 11:55:00,34.0,10.5,0.00,SE,126,2.7,2.7,37,0.00,,---,0.00,VWS V14.00,2013-02-20 18:55:00,
2013-02-20 11:56:00,34.0,10.5,0.00,SE,124,3.6,3.6,37,0.00,,---,0.00,VWS V14.00,2013-02-20 18:56:00,
2013-02-20 11:57:00,34.2,10.6,0.00,SSE,153,2.7,2.7,37,0.00,,---,0.00,VWS V14.00,2013-02-20 18:57:00,
2013-02-20 11:59:00,34.3,10.8,0.00,SSE,155,3.1,3.1,37,0.00,,---,0.00,VWS V14.00,2013-02-20 18:59:00,
2013-02-20 12:00:00,34.3,10.8,0.00,SSE,154,3.1,3.1,37,0.00,,---,0.00,VWS V14.00,2013-02-20 19:00:00,
2013-02-20 12:01:00,34.3,10.8,0.00,SE,142,0.0,3.1,37,0.00,,---,0.00,VWS V14.00,2013-02-20 19:01:00,
2013-02-20 12:03:00,34.3,10.8,0.00,South,186,0.0,3.1,37,0.00,,---,0.00,VWS V14.00,2013-02-20 19:03:00,
2013-02-20 12:04:00,34.3,10.8,0.00,SSW,192,0.0,0.0,37,0.00,,---,0.00,VWS V14.00,2013-02-20 19:04:00,
2013-02-20 12:05:00,34.3,10.8,0.00,South,175,0.0,2.2,37,0.00,,---,0.00,VWS V14.00,2013-02-20 19:05:00,
2013-02-20 12:06:00,34.3,10.8,0.00,SSE,150,3.1,3.1,37,0.00,,---,0.00,VWS V14.00,2013-02-20 19:06:00,
2013-02-20 12:07:00,34.5,10.9,0.00,SE,128,0.0,3.6,37,0.00,,---,0.00,VWS V14.00,2013-02-20 19:07:00,
2013-02-20 12:09:00,34.5,10.9,0.00,SSE,159,2.2,2.2,37,0.00,,---,0.00,VWS V14.00,2013-02-20 19:09:00,
2013-02-20 12:10:00,34.5,10.9,0.00,SSE,161,0.0,2.2,37,0.00,,---,0.00,VWS V14.00,2013-02-20 19:10:00,
2013-02-20 12:11:00,34.5,10.3,0.00,SSE,157,3.1,3.1,36,0.00,,---,0.00,VWS V14.00,2013-02-20 19:11:00,
2013-02-20 12:12:00,34.5,10.9,0.00,ESE,112,0.0,2.7,37,0.00,,---,0.00,VWS V14.00,2013-02-20 19:12:00,
2013-02-20 12:14:00,34.7,11.1,0.00,ESE,111,2.7,6.3,37,0.00,,---,0.00,VWS V14.00,2013-02-20 19:14:00,
2013-02-20 12:15:00,34.7,11.1,0.00,ESE,110,2.2,2.7,37,0.00,,---,0.00,VWS V14.00,2013-02-20 19:15:00,
2013-02-20 12:16:00,34.7,11.1,0.00,ESE,119,2.2,2.2,37,0.00,,---,0.00,VWS V14.00,2013-02-20 19:16:00,
2013-02-20 12:18:00,34.7,11.1,0.00,East,91,2.7,2.7,37,0.00,,---,0.00,VWS V14.00,2013-02-20 19:18:00,
2013-02-20 12:19:00,34.9,11.3,0.00,SW,214,0.0,4.0,37,0.00,,---,0.00,VWS V14.00,2013-02-20 19:19:00,
2013-02-20 12:20:00,34.9,11.3,0.00,SE,131,4.0,4.0,37,0.00,,---,0.00,VWS V14.00,2013-02-20 19:20:00,
2013-02-20 12:21:00,34.9,11.3,0.00,SE,132,0.0,0.0,37,0.00,,---,0.00,VWS V14.00,2013-02-20 19:21:00,
2013-02-20 12:23:00,34.9,11.3,0.00,SSE,168,0.0,0.0,37,0.00,,---,0.00,VWS V14.00,2013-02-20 19:23:00,
2013-02-20 12:24:00,35.1,11.4,0.00,NE,56,5.8,5.8,37,0.00,,---,0.00,VWS V14.00,2013-02-20 19:24:00,
2013-02-20 12:25:00,35.1,11.4,0.00,East,82,4.5,5.8,37,0.00,,---,0.00,VWS V14.00,2013-02-20 19:25:00,
2013-02-20 12:26:00,35.1,11.4,0.00,SE,126,4.5,4.5,37,0.00,,---,0.00,VWS V14.00,2013-02-20 19:26:00,
2013-02-20 12:28:00,35.1,11.4,0.00,East,89,3.1,3.6,37,0.00,,---,0.00,VWS V14.00,2013-02-20 19:28:00,
2013-02-20 12:29:00,35.2,11.6,0.00,ESE,120,2.7,2.7,37,0.00,,---,0.00,VWS V14.00,2013-02-20 19:29:00,
2013-02-20 12:30:00,35.2,11.6,0.00,East,97,2.7,4.0,37,0.00,,---,0.00,VWS V14.00,2013-02-20 19:30:00,
2013-02-20 12:31:00,35.4,11.8,0.00,WSW,256,0.0,0.0,37,0.00,,---,0.00,VWS V14.00,2013-02-20 19:31:00,
2013-02-20 12:33:00,35.4,11.8,0.00,SE,144,3.6,3.6,37,0.00,,---,0.00,VWS V14.00,2013-02-20 19:33:00,
2013-02-20 12:35:00,35.4,11.8,0.00,ESE,108,2.2,3.1,37,0.00,,---,0.00,VWS V14.00,2013-02-20 19:35:00,
2013-02-20 12:36:00,35.4,11.8,0.00,ESE,113,3.1,3.1,37,0.00,,---,0.00,VWS V14.00,2013-02-20 19:36:00,
2013-02-20 12:38:00,35.4,11.8,0.00,ESE,119,2.7,4.0,37,0.00,,---,0.00,VWS V14.00,2013-02-20 19:38:00,
2013-02-20 12:40:00,35.6,11.9,0.00,SE,127,0.0,0.0,37,0.00,,---,0.00,VWS V14.00,2013-02-20 19:40:00,
2013-02-20 12:41:00,35.6,11.9,0.00,SE,126,0.0,3.1,37,0.00,,---,0.00,VWS V14.00,2013-02-20 19:41:00,
2013-02-20 12:42:00,35.6,11.9,0.00,SE,126,2.7,2.7,37,0.00,,---,0.00,VWS V14.00,2013-02-20 19:42:00,
2013-02-20 12:44:00,35.6,11.9,0.00,SE,127,2.2,2.2,37,0.00,,---,0.00,VWS V14.00,2013-02-20 19:44:00,
2013-02-20 12:45:00,35.8,11.4,0.00,ESE,117,5.8,5.8,36,0.00,,---,0.00,VWS V14.00,2013-02-20 19:45:00,
2013-02-20 12:46:00,35.8,11.4,0.00,East,86,5.4,6.3,36,0.00,,---,0.00,VWS V14.00,2013-02-20 19:46:00,
2013-02-20 12:47:00,35.8,11.4,0.00,ESE,111,2.7,4.0,36,0.00,,---,0.00,VWS V14.00,2013-02-20 19:47:00,
2013-02-20 12:49:00,35.8,11.4,0.00,East,98,3.6,3.6,36,0.00,,---,0.00,VWS V14.00,2013-02-20 19:49:00,
2013-02-20 12:50:00,35.8,11.4,0.00,ESE,116,2.7,4.9,36,0.00,,---,0.00,VWS V14.00,2013-02-20 19:50:00,
2013-02-20 12:51:00,35.8,11.4,0.00,SE,141,2.7,5.4,36,0.00,,---,0.00,VWS V14.00,2013-02-20 19:51:00,
2013-02-20 12:52:00,35.8,11.4,0.00,SE,126,3.1,3.1,36,0.00,,---,0.00,VWS V14.00,2013-02-20 19:52:00,
2013-02-20 12:54:00,35.8,11.4,0.00,East,93,3.6,4.0,36,0.00,,---,0.00,VWS V14.00,2013-02-20 19:54:00,
2013-02-20 12:55:00,35.8,11.4,0.00,East,97,5.8,5.8,36,0.00,,---,0.00,VWS V14.00,2013-02-20 19:55:00,
2013-02-20 12:56:00,35.8,11.4,0.00,ESE,109,3.1,5.8,36,0.00,,---,0.00,VWS V14.00,2013-02-20 19:56:00,
2013-02-20 12:57:00,35.8,11.4,0.00,ESE,111,0.0,3.1,36,0.00,,---,0.00,VWS V14.00,2013-02-20 19:57:00,
2013-02-20 12:59:00,36.0,11.6,0.00,ESE,120,0.0,3.1,36,0.00,,---,0.00,VWS V14.00,2013-02-20 19:59:00,
2013-02-20 13:00:00,36.0,11.6,0.00,East,88,0.0,4.0,36,0.00,,---,0.00,VWS V14.00,2013-02-20 20:00:00,
2013-02-20 13:01:00,36.0,11.6,0.00,East,89,0.0,0.0,36,0.00,,---,0.00,VWS V14.00,2013-02-20 20:01:00,
2013-02-20 13:02:00,36.0,11.6,0.00,ESE,111,2.7,2.7,36,0.00,,---,0.00,VWS V14.00,2013-02-20 20:02:00,
2013-02-20 13:04:00,36.0,11.6,0.00,East,83,4.0,4.0,36,0.00,,---,0.00,VWS V14.00,2013-02-20 20:04:00,
2013-02-20 13:05:00,36.1,11.8,0.00,SE,130,3.1,3.1,36,0.00,,---,0.00,VWS V14.00,2013-02-20 20:05:00,
2013-02-20 13:06:00,36.1,11.8,0.00,SSW,204,0.0,0.0,36,0.00,,---,0.00,VWS V14.00,2013-02-20 20:06:00,
2013-02-20 13:07:00,36.1,11.8,0.00,ENE,77,5.4,5.4,36,0.00,,---,0.00,VWS V14.00,2013-02-20 20:07:00,
2013-02-20 13:09:00,36.1,11.8,0.00,ESE,105,3.1,3.1,36,0.00,,---,0.00,VWS V14.00,2013-02-20 20:09:00,
2013-02-20 13:10:00,36.1,11.8,0.00,ESE,111,0.0,4.0,36,0.00,,---,0.00,VWS V14.00,2013-02-20 20:10:00,
2013-02-20 13:11:00,36.1,11.8,0.00,ESE,113,0.0,2.7,36,0.00,,---,0.00,VWS V14.00,2013-02-20 20:11:00,
2013-02-20 13:12:00,36.1,11.8,0.00,ESE,108,4.0,4.9,36,0.00,,---,0.00,VWS V14.00,2013-02-20 20:12:00,
2013-02-20 13:14:00,36.1,11.8,0.00,East,97,3.6,5.4,36,0.00,,---,0.00,VWS V14.00,2013-02-20 20:14:00,
2013-02-20 13:15:00,36.1,11.8,0.00,WNW,302,0.0,0.0,36,0.00,,---,0.00,VWS V14.00,2013-02-20 20:15:00,
2013-02-20 13:17:00,36.1,11.8,0.00,ESE,103,3.1,4.0,36,0.00,,---,0.00,VWS V14.00,2013-02-20 20:17:00,
2013-02-20 13:19:00,36.1,11.8,0.00,SE,146,0.0,3.6,36,0.00,,---,0.00,VWS V14.00,2013-02-20 20:19:00,
2013-02-20 13:20:00,36.1,11.8,0.00,NW,309,0.0,2.7,36,0.00,,---,0.00,VWS V14.00,2013-02-20 20:20:00,
2013-02-20 13:22:00,36.1,11.8,0.00,SW,220,0.0,0.0,36,0.00,,---,0.00,VWS V14.00,2013-02-20 20:22:00,
2013-02-20 13:24:00,36.3,11.9,0.00,East,85,3.1,4.9,36,0.00,,---,0.00,VWS V14.00,2013-02-20 20:24:00,
2013-02-20 13:26:00,36.3,11.9,0.00,ESE,117,3.6,4.0,36,0.00,,---,0.00,VWS V14.00,2013-02-20 20:26:00,
2013-02-20 13:27:00,36.3,11.9,0.00,WSW,238,0.0,0.0,36,0.00,,---,0.00,VWS V14.00,2013-02-20 20:27:00,
2013-02-20 13:29:00,36.3,11.9,0.00,WSW,246,3.1,3.1,36,0.00,,---,0.00,VWS V14.00,2013-02-20 20:29:00,
2013-02-20 13:31:00,36.3,11.9,0.00,NW,305,2.7,2.7,36,0.00,,---,0.00,VWS V14.00,2013-02-20 20:31:00,
2013-02-20 13:32:00,36.3,11.9,0.00,SSW,203,0.0,5.8,36,0.00,,---,0.00,VWS V14.00,2013-02-20 20:32:00,
2013-02-20 13:34:00,36.3,11.9,0.00,WSW,251,2.2,2.7,36,0.00,,---,0.00,VWS V14.00,2013-02-20 20:34:00,
2013-02-20 13:36:00,36.3,11.9,0.00,West,268,0.0,0.0,36,0.00,,---,0.00,VWS V14.00,2013-02-20 20:36:00,
2013-02-20 13:37:00,36.3,11.9,0.00,WSW,241,0.0,0.0,36,0.00,,---,0.00,VWS V14.00,2013-02-20 20:37:00,
2013-02-20 13:38:00,36.3,11.9,0.00,WNW,282,2.7,2.7,36,0.00,,---,0.00,VWS V14.00,2013-02-20 20:38:00,
2013-02-20 13:40:00,36.3,11.9,0.00,SE,141,3.1,4.9,36,0.00,,---,0.00,VWS V14.00,2013-02-20 20:40:00,
2013-02-20 13:41:00,36.3,11.9,0.00,ESE,107,3.1,5.8,36,0.00,,---,0.00,VWS V14.00,2013-02-20 20:41:00,
2013-02-20 13:42:00,36.3,11.9,0.00,SE,135,3.6,5.8,36,0.00,,---,0.00,VWS V14.00,2013-02-20 20:42:00,
2013-02-20 13:43:00,36.3,11.9,0.00,SW,229,0.0,0.0,36,0.00,,---,0.00,VWS V14.00,2013-02-20 20:43:00,
2013-02-20 13:44:00,36.3,11.9,0.00,South,170,0.0,4.9,36,0.00,,---,0.00,VWS V14.00,2013-02-20 20:44:00,
2013-02-20 13:46:00,36.3,11.9,0.00,SE,137,3.1,3.1,36,0.00,,---,0.00,VWS V14.00,2013-02-20 20:46:00,
2013-02-20 13:47:00,36.3,11.9,0.00,SSE,166,2.2,2.7,36,0.00,,---,0.00,VWS V14.00,2013-02-20 20:47:00,
2013-02-20 13:48:00,36.3,11.9,0.00,West,263,0.0,2.7,36,0.00,,---,0.00,VWS V14.00,2013-02-20 20:48:00,
2013-02-20 13:49:00,36.5,12.1,0.00,ESE,122,3.1,3.1,36,0.00,,---,0.00,VWS V14.00,2013-02-20 20:49:00,
2013-02-20 13:52:00,36.5,12.1,0.00,SE,133,4.0,4.0,36,0.00,,---,0.00,VWS V14.00,2013-02-20 20:52:00,
2013-02-20 13:53:00,36.5,12.1,0.00,SE,130,2.7,4.0,36,0.00,,---,0.00,VWS V14.00,2013-02-20 20:53:00,
2013-02-20 13:55:00,36.5,12.1,0.00,SE,133,0.0,0.0,36,0.00,,---,0.00,VWS V14.00,2013-02-20 20:55:00,
2013-02-20 13:57:00,36.5,12.1,0.00,SSE,154,0.0,3.1,36,0.00,,---,0.00,VWS V14.00,2013-02-20 20:57:00,
2013-02-20 13:58:00,36.5,12.1,0.00,SSE,156,0.0,0.0,36,0.00,,---,0.00,VWS V14.00,2013-02-20 20:58:00,
2013-02-20 14:00:00,36.5,12.1,0.00,WSW,239,0.0,0.0,36,0.00,,---,0.00,VWS V14.00,2013-02-20 21:00:00,
2013-02-20 14:02:00,36.5,12.1,0.00,SE,135,4.0,4.0,36,0.00,,---,0.00,VWS V14.00,2013-02-20 21:02:00,
2013-02-20 14:03:00,36.5,12.1,0.00,SE,139,2.7,3.6,36,0.00,,---,0.00,VWS V14.00,2013-02-20 21:03:00,
2013-02-20 14:05:00,36.5,12.1,0.00,WSW,244,2.7,2.7,36,0.00,,---,0.00,VWS V14.00,2013-02-20 21:05:00,
2013-02-20 14:07:00,36.5,12.1,0.00,SW,223,0.0,0.0,36,0.00,,---,0.00,VWS V14.00,2013-02-20 21:07:00,
2013-02-20 14:08:00,36.5,12.1,0.00,SW,225,0.0,2.7,36,0.00,,---,0.00,VWS V14.00,2013-02-20 21:08:00,
2013-02-20 14:10:00,36.5,12.1,0.00,ESE,105,0.0,3.6,36,0.00,,---,0.00,VWS V14.00,2013-02-20 21:10:00,
2013-02-20 14:12:00,36.5,12.1,0.00,SSW,207,0.0,4.0,36,0.00,,---,0.00,VWS V14.00,2013-02-20 21:12:00,
2013-02-20 14:13:00,36.5,12.1,0.00,SW,214,0.0,0.0,36,0.00,,---,0.00,VWS V14.00,2013-02-20 21:13:00,
2013-02-20 14:15:00,36.7,12.3,0.00,WNW,284,0.0,4.0,36,0.00,,---,0.00,VWS V14.00,2013-02-20 21:15:00,
2013-02-20 14:17:00,36.7,12.3,0.00,SE,144,3.6,3.6,36,0.00,,---,0.00,VWS V14.00,2013-02-20 21:17:00,
2013-02-20 14:18:00,36.7,12.3,0.00,ESE,115,2.7,5.4,36,0.00,,---,0.00,VWS V14.00,2013-02-20 21:18:00,
2013-02-20 14:20:00,36.7,12.3,0.00,WSW,244,0.0,2.2,36,0.00,,---,0.00,VWS V14.00,2013-02-20 21:20:00,
2013-02-20 14:22:00,36.7,12.3,0.00,SSW,202,0.0,0.0,36,0.00,,---,0.00,VWS V14.00,2013-02-20 21:22:00,
2013-02-20 14:23:00,36.7,12.3,0.00,SSE,162,3.6,5.4,36,0.00,,---,0.00,VWS V14.00,2013-02-20 21:23:00,
2013-02-20 14:25:00,36.5,12.1,0.00,SSE,162,2.7,2.7,36,0.00,,---,0.00,VWS V14.00,2013-02-20 21:25:00,
2013-02-20 14:27:00,36.5,12.1,0.00,SW,229,4.0,4.0,36,0.00,,---,0.00,VWS V14.00,2013-02-20 21:27:00,
2013-02-20 14:28:00,36.5,12.1,0.00,SSE,153,4.0,4.0,36,0.00,,---,0.00,VWS V14.00,2013-02-20 21:28:00,
2013-02-20 14:30:00,36.5,12.1,0.00,ESE,111,3.1,3.1,36,0.00,,---,0.00,VWS V14.00,2013-02-20 21:30:00,
2013-02-20 14:32:00,36.5,12.1,0.00,SSE,162,0.0,5.8,36,0.00,,---,0.00,VWS V14.00,2013-02-20 21:32:00,
2013-02-20 14:33:00,36.3,11.9,0.00,SSW,199,0.0,2.7,36,0.00,,---,0.00,VWS V14.00,2013-02-20 21:33:00,
2013-02-20 14:36:00,36.1,11.8,0.00,SE,131,4.0,4.0,36,0.00,,---,0.00,VWS V14.00,2013-02-20 21:36:00,
2013-02-20 14:37:00,36.1,11.8,0.00,SE,125,4.0,4.0,36,0.00,,---,0.00,VWS V14.00,2013-02-20 21:37:00,
2013-02-20 14:38:00,36.1,11.8,0.00,SE,134,3.6,4.5,36,0.00,,---,0.00,VWS V14.00,2013-02-20 21:38:00,
2013-02-20 14:41:00,36.1,12.4,0.00,SSW,195,0.0,0.0,37,0.00,,---,0.00,VWS V14.00,2013-02-20 21:41:00,
2013-02-20 14:43:00,36.0,12.2,0.00,SE,135,3.6,3.6,37,0.00,,---,0.00,VWS V14.00,2013-02-20 21:43:00,
2013-02-20 14:46:00,35.8,12.1,0.00,SE,136,2.2,3.1,37,0.00,,---,0.00,VWS V14.00,2013-02-20 21:46:00,
2013-02-20 14:48:00,35.8,12.1,0.00,SSE,152,2.7,3.6,37,0.00,,---,0.00,VWS V14.00,2013-02-20 21:48:00,
2013-02-20 14:52:00,35.4,11.8,0.00,SSW,198,3.1,3.1,37,0.00,,---,0.00,VWS V14.00,2013-02-20 21:52:00,
2013-02-20 14:53:00,35.4,11.8,0.00,SW,228,0.0,3.6,37,0.00,,---,0.00,VWS V14.00,2013-02-20 21:53:00,
2013-02-20 14:54:00,35.4,11.8,0.00,SW,216,0.0,0.0,37,0.00,,---,0.00,VWS V14.00,2013-02-20 21:54:00,
2013-02-20 14:57:00,35.2,11.6,0.00,ESE,111,2.2,4.0,37,0.00,,---,0.00,VWS V14.00,2013-02-20 21:57:00,
2013-02-20 14:58:00,35.1,11.4,0.00,SE,146,2.7,2.7,37,0.00,,---,0.00,VWS V14.00,2013-02-20 21:58:00,
2013-02-20 14:59:00,35.1,11.4,0.00,SE,143,2.7,3.1,37,0.00,,---,0.00,VWS V14.00,2013-02-20 21:59:00,
2013-02-20 15:02:00,34.9,11.9,0.00,SE,142,5.4,5.4,38,0.00,,---,0.00,VWS V14.00,2013-02-20 22:02:00,
2013-02-20 15:03:00,34.9,11.9,0.00,SSE,150,4.0,4.0,38,0.00,,---,0.00,VWS V14.00,2013-02-20 22:03:00,
2013-02-20 15:04:00,34.9,11.9,0.00,SSW,212,0.0,2.2,38,0.00,,---,0.00,VWS V14.00,2013-02-20 22:04:00,
2013-02-20 15:07:00,34.7,11.7,0.00,ESE,121,0.0,0.0,38,0.00,,---,0.00,VWS V14.00,2013-02-20 22:07:00,
2013-02-20 15:08:00,34.7,11.7,0.00,South,187,0.0,2.7,38,0.00,,---,0.00,VWS V14.00,2013-02-20 22:08:00,
2013-02-20 15:09:00,34.7,11.7,0.00,SW,223,0.0,0.0,38,0.00,,---,0.00,VWS V14.00,2013-02-20 22:09:00,
2013-02-20 15:12:00,34.5,11.5,0.00,SW,220,0.0,0.0,38,0.00,,---,0.00,VWS V14.00,2013-02-20 22:12:00,
2013-02-20 15:13:00,34.5,12.1,0.00,ESE,119,2.7,4.0,39,0.00,,---,0.00,VWS V14.00,2013-02-20 22:13:00,
2013-02-20 15:14:00,34.5,12.1,0.00,SW,224,2.7,2.7,39,0.00,,---,0.00,VWS V14.00,2013-02-20 22:14:00,
2013-02-20 15:15:00,34.3,12.0,0.00,ESE,122,3.1,3.1,39,0.00,,---,0.00,VWS V14.00,2013-02-20 22:15:00,
2013-02-20 15:17:00,34.3,12.0,0.00,South,171,3.1,3.1,39,0.00,,---,0.00,VWS V14.00,2013-02-20 22:17:00,
2013-02-20 15:18:00,34.3,12.0,0.00,South,175,0.0,0.0,39,0.00,,---,0.00,VWS V14.00,2013-02-20 22:18:00,
2013-02-20 15:19:00,34.2,11.8,0.00,SSE,149,0.0,3.1,39,0.00,,---,0.00,VWS V14.00,2013-02-20 22:19:00,
2013-02-20 15:20:00,34.2,11.8,0.00,SSE,149,0.0,0.0,39,0.00,,---,0.00,VWS V14.00,2013-02-20 22:20:00,
2013-02-20 15:22:00,34.0,11.6,0.00,SE,136,2.7,2.7,39,0.00,,---,0.00,VWS V14.00,2013-02-20 22:22:00,
2013-02-20 15:23:00,34.0,12.2,0.00,South,190,0.0,2.7,40,0.00,,---,0.00,VWS V14.00,2013-02-20 22:23:00,
2013-02-20 15:24:00,34.0,12.2,0.00,SE,137,3.1,3.1,40,0.00,,---,0.00,VWS V14.00,2013-02-20 22:24:00,
2013-02-20 15:25:00,34.0,12.2,0.00,SE,139,3.6,3.6,40,0.00,,---,0.00,VWS V14.00,2013-02-20 22:25:00,
2013-02-20 15:27:00,34.0,12.2,0.00,South,169,0.0,0.0,40,0.00,,---,0.00,VWS V14.00,2013-02-20 22:27:00,
2013-02-20 15:28:00,33.8,12.1,0.00,West,267,0.0,3.6,40,0.00,,---,0.00,VWS V14.00,2013-02-20 22:28:00,
2013-02-20 15:29:00,33.8,12.1,0.00,ESE,123,2.7,2.7,40,0.00,,---,0.00,VWS V14.00,2013-02-20 22:29:00,
2013-02-20 15:30:00,33.8,12.1,0.00,SE,136,0.0,0.0,40,0.00,,---,0.00,VWS V14.00,2013-02-20 22:30:00,
2013-02-20 15:32:00,33.6,11.9,0.00,SE,142,0.0,4.0,40,0.00,,---,0.00,VWS V14.00,2013-02-20 22:32:00,
2013-02-20 15:33:00,33.6,11.9,0.00,ESE,120,3.6,3.6,40,0.00,,---,0.00,VWS V14.00,2013-02-20 22:33:00,
2013-02-20 15:35:00,33.6,11.9,0.00,East,95,2.2,2.2,40,0.00,,---,0.00,VWS V14.00,2013-02-20 22:35:00,
2013-02-20 15:37:00,33.6,12.4,0.00,ESE,106,3.6,3.6,41,0.00,,---,0.00,VWS V14.00,2013-02-20 22:37:00,
2013-02-20 15:39:00,33.4,12.3,0.00,SE,129,0.0,3.1,41,0.00,,---,0.00,VWS V14.00,2013-02-20 22:39:00,
2013-02-20 15:40:00,33.4,12.3,0.00,ESE,119,3.1,3.1,41,0.00,,---,0.00,VWS V14.00,2013-02-20 22:40:00,
2013-02-20 15:43:00,33.4,12.3,0.00,ESE,106,4.0,4.0,41,0.00,,---,0.00,VWS V14.00,2013-02-20 22:43:00,
2013-02-20 15:44:00,33.4,12.3,0.00,ESE,116,2.7,4.0,41,0.00,,---,0.00,VWS V14.00,2013-02-20 22:44:00,
2013-02-20 15:45:00,33.3,12.1,0.00,ESE,116,0.0,0.0,41,0.00,,---,0.00,VWS V14.00,2013-02-20 22:45:00,
2013-02-20 15:48:00,33.3,12.1,0.00,WNW,285,0.0,0.0,41,0.00,,---,0.00,VWS V14.00,2013-02-20 22:48:00,
2013-02-20 15:49:00,33.3,12.1,0.00,West,278,0.0,0.0,41,0.00,,---,0.00,VWS V14.00,2013-02-20 22:49:00,
2013-02-20 15:50:00,33.3,12.1,0.00,SW,220,0.0,0.0,41,0.00,,---,0.00,VWS V14.00,2013-02-20 22:50:00,
2013-02-20 15:51:00,33.1,12.0,0.00,SE,124,2.7,2.7,41,0.00,,---,0.00,VWS V14.00,2013-02-20 22:51:00,
2013-02-20 15:53:00,33.1,12.5,0.00,ESE,105,3.6,3.6,42,0.00,,---,0.00,VWS V14.00,2013-02-20 22:53:00,
2013-02-20 15:54:00,33.1,12.5,0.00,ESE,105,0.0,2.2,42,0.00,,---,0.00,VWS V14.00,2013-02-20 22:54:00,
2013-02-20 15:55:00,33.1,12.5,0.00,ESE,105,0.0,0.0,42,0.00,,---,0.00,VWS V14.00,2013-02-20 22:55:00,
2013-02-20 15:56:00,32.9,12.3,0.00,ESE,105,0.0,0.0,42,0.00,,---,0.00,VWS V14.00,2013-02-20 22:56:00,
2013-02-20 15:58:00,32.9,12.3,0.00,ESE,108,0.0,2.2,42,0.00,,---,0.00,VWS V14.00,2013-02-20 22:58:00,
2013-02-20 15:59:00,32.9,12.3,0.00,ESE,108,0.0,0.0,42,0.00,,---,0.00,VWS V14.00,2013-02-20 22:59:00,
2013-02-20 16:00:00,32.7,12.2,0.00,ESE,107,2.2,3.6,42,0.00,,---,0.00,VWS V14.00,2013-02-20 23:00:00,
2013-02-20 16:01:00,32.7,12.2,0.00,East,80,0.0,0.0,42,0.00,,---,0.00,VWS V14.00,2013-02-20 23:01:00,
2013-02-20 16:03:00,32.7,12.2,0.00,East,97,2.7,2.7,42,0.00,,---,0.00,VWS V14.00,2013-02-20 23:03:00,
2013-02-20 16:04:00,32.7,12.2,0.00,East,97,0.0,2.7,42,0.00,,---,0.00,VWS V14.00,2013-02-20 23:04:00,
2013-02-20 16:05:00,32.7,12.2,0.00,East,97,0.0,0.0,42,0.00,,---,0.00,VWS V14.00,2013-02-20 23:05:00,
2013-02-20 16:06:00,32.7,12.7,0.00,East,97,0.0,2.2,43,0.00,,---,0.00,VWS V14.00,2013-02-20 23:06:00,
2013-02-20 16:08:00,32.5,12.5,0.00,South,188,2.7,2.7,43,0.00,,---,0.00,VWS V14.00,2013-02-20 23:08:00,
2013-02-20 16:09:00,32.5,12.5,0.00,South,188,0.0,2.7,43,0.00,,---,0.00,VWS V14.00,2013-02-20 23:09:00,
2013-02-20 16:10:00,32.5,12.5,0.00,South,188,0.0,0.0,43,0.00,,---,0.00,VWS V14.00,2013-02-20 23:10:00,
2013-02-20 16:11:00,32.5,12.5,0.00,South,188,0.0,0.0,43,0.00,,---,0.00,VWS V14.00,2013-02-20 23:11:00,
2013-02-20 16:13:00,32.5,12.5,0.00,WSW,245,0.0,0.0,43,0.00,,---,0.00,VWS V14.00,2013-02-20 23:13:00,
2013-02-20 16:14:00,32.5,12.5,0.00,WSW,245,0.0,0.0,43,0.00,,---,0.00,VWS V14.00,2013-02-20 23:14:00,
2013-02-20 16:15:00,32.5,12.5,0.00,WSW,245,0.0,0.0,43,0.00,,---,0.00,VWS V14.00,2013-02-20 23:15:00,
2013-02-20 16:16:00,32.5,12.5,0.00,WSW,245,0.0,0.0,43,0.00,,---,0.00,VWS V14.00,2013-02-20 23:16:00,
2013-02-20 16:19:00,32.4,12.9,0.00,WSW,240,0.0,0.0,44,0.00,,---,0.00,VWS V14.00,2013-02-20 23:19:00,
2013-02-20 16:20:00,32.4,12.9,0.00,WSW,238,0.0,0.0,44,0.00,,---,0.00,VWS V14.00,2013-02-20 23:20:00,
2013-02-20 16:21:00,32.2,12.7,0.00,SW,235,0.0,0.0,44,0.00,,---,0.00,VWS V14.00,2013-02-20 23:21:00,
2013-02-20 16:24:00,32.2,12.7,0.00,SW,232,0.0,0.0,44,0.00,,---,0.00,VWS V14.00,2013-02-20 23:24:00,
2013-02-20 16:25:00,32.2,12.7,0.00,SW,232,0.0,0.0,44,0.00,,---,0.00,VWS V14.00,2013-02-20 23:25:00,
2013-02-20 16:26:00,32.2,12.7,0.00,SW,232,0.0,0.0,44,0.00,,---,0.00,VWS V14.00,2013-02-20 23:26:00,
2013-02-20 16:29:00,32.0,12.6,0.00,SW,232,0.0,0.0,44,0.00,,---,0.00,VWS V14.00,2013-02-20 23:29:00,
2013-02-20 16:30:00,32.0,12.6,0.00,SW,233,0.0,0.0,44,0.00,,---,0.00,VWS V14.00,2013-02-20 23:30:00,
2013-02-20 16:31:00,31.8,12.4,0.00,SW,233,0.0,0.0,44,0.00,,---,0.00,VWS V14.00,2013-02-20 23:31:00,
2013-02-20 16:34:00,31.8,12.4,0.00,SW,233,0.0,0.0,44,0.00,,---,0.00,VWS V14.00,2013-02-20 23:34:00,
2013-02-20 16:35:00,31.8,12.9,0.00,SW,233,0.0,0.0,45,0.00,,---,0.00,VWS V14.00,2013-02-20 23:35:00,
2013-02-20 16:36:00,31.6,12.8,0.00,SW,229,0.0,0.0,45,0.00,,---,0.00,VWS V14.00,2013-02-20 23:36:00,
2013-02-20 16:39:00,31.6,12.8,0.00,SW,229,0.0,0.0,45,0.00,,---,0.00,VWS V14.00,2013-02-20 23:39:00,
2013-02-20 16:40:00,31.5,12.6,0.00,SSW,198,0.0,0.0,45,0.00,,---,0.00,VWS V14.00,2013-02-20 23:40:00,
2013-02-20 16:41:00,31.5,12.6,0.00,SSW,198,0.0,0.0,45,0.00,,---,0.00,VWS V14.00,2013-02-20 23:41:00,
2013-02-20 16:44:00,31.5,12.6,0.00,SSW,199,0.0,0.0,45,0.00,,---,0.00,VWS V14.00,2013-02-20 23:44:00,
2013-02-20 16:45:00,31.3,12.4,0.00,SSW,198,0.0,0.0,45,0.00,,---,0.00,VWS V14.00,2013-02-20 23:45:00,
2013-02-20 16:46:00,31.3,12.4,0.00,SSW,198,0.0,0.0,45,0.00,,---,0.00,VWS V14.00,2013-02-20 23:46:00,
2013-02-20 16:49:00,31.1,12.8,0.00,SSW,208,0.0,0.0,46,0.00,,---,0.00,VWS V14.00,2013-02-20 23:49:00,
2013-02-20 16:50:00,31.1,12.8,0.00,SSW,201,0.0,0.0,46,0.00,,---,0.00,VWS V14.00,2013-02-20 23:50:00,
2013-02-20 16:51:00,31.1,12.8,0.00,SSW,200,0.0,0.0,46,0.00,,---,0.00,VWS V14.00,2013-02-20 23:51:00,
2013-02-20 16:54:00,30.7,12.4,0.00,SE,135,0.0,0.0,46,0.00,,---,0.00,VWS V14.00,2013-02-20 23:54:00,
2013-02-20 16:55:00,30.7,12.4,0.00,SE,146,0.0,0.0,46,0.00,,---,0.00,VWS V14.00,2013-02-20 23:55:00,
2013-02-20 16:56:00,30.6,12.3,0.00,SE,146,0.0,0.0,46,0.00,,---,0.00,VWS V14.00,2013-02-20 23:56:00,
2013-02-20 17:00:00,30.2,12.4,0.00,SSE,166,2.2,2.2,47,0.00,,---,0.00,VWS V14.00,2013-02-21 00:00:00,
2013-02-20 17:01:00,30.2,12.4,0.00,SSE,165,3.1,3.1,47,0.00,,---,0.00,VWS V14.00,2013-02-21 00:01:00,
2013-02-20 17:05:00,29.8,12.1,0.00,South,186,0.0,0.0,47,0.00,,---,0.00,VWS V14.00,2013-02-21 00:05:00,
2013-02-20 17:06:00,29.8,12.1,0.00,SSE,168,0.0,0.0,47,0.00,,---,0.00,VWS V14.00,2013-02-21 00:06:00,
2013-02-20 17:10:00,29.3,11.6,0.00,SW,219,0.0,0.0,47,0.00,,---,0.00,VWS V14.00,2013-02-21 00:10:00,
2013-02-20 17:11:00,29.1,11.4,0.00,South,169,2.2,4.0,47,0.00,,---,0.00,VWS V14.00,2013-02-21 00:11:00,
2013-02-20 17:15:00,28.8,11.1,0.00,SSE,168,2.7,5.4,47,0.00,,---,0.00,VWS V14.00,2013-02-21 00:15:00,
2013-02-20 17:16:00,28.8,11.1,0.00,South,182,0.0,0.0,47,0.00,,---,0.00,VWS V14.00,2013-02-21 00:16:00,
2013-02-20 17:17:00,28.6,10.9,0.00,South,177,0.0,0.0,47,0.00,,---,0.00,VWS V14.00,2013-02-21 00:17:00,
2013-02-20 17:20:00,28.4,11.2,0.00,SSW,209,0.0,3.6,48,0.00,,---,0.00,VWS V14.00,2013-02-21 00:20:00,
2013-02-20 17:21:00,28.2,11.1,0.00,SE,143,4.0,4.0,48,0.00,,---,0.00,VWS V14.00,2013-02-21 00:21:00,
2013-02-20 17:22:00,28.0,10.9,0.00,SW,225,0.0,0.0,48,0.00,,---,0.00,VWS V14.00,2013-02-21 00:22:00,
2013-02-20 17:25:00,27.9,10.7,0.00,ESE,115,0.0,3.6,48,0.00,,---,0.00,VWS V14.00,2013-02-21 00:25:00,
2013-02-20 17:26:00,27.9,10.7,0.00,SE,138,3.1,3.6,48,0.00,,---,0.00,VWS V14.00,2013-02-21 00:26:00,
2013-02-20 17:27:00,27.9,10.7,0.00,SE,138,0.0,0.0,48,0.00,,---,0.00,VWS V14.00,2013-02-21 00:27:00,
2013-02-20 17:30:00,27.7,10.6,0.00,SE,145,0.0,0.0,48,0.00,,---,0.00,VWS V14.00,2013-02-21 00:30:00,
2013-02-20 17:31:00,27.5,10.4,0.00,SE,145,2.2,2.2,48,0.00,,---,0.00,VWS V14.00,2013-02-21 00:31:00,
2013-02-20 17:32:00,27.5,10.4,0.00,SE,145,0.0,0.0,48,0.00,,---,0.00,VWS V14.00,2013-02-21 00:32:00,
2013-02-20 17:35:00,27.3,9.8,0.00,SE,145,0.0,0.0,47,0.00,,---,0.00,VWS V14.00,2013-02-21 00:35:00,
2013-02-20 17:36:00,27.3,9.8,0.00,SE,145,0.0,0.0,47,0.00,,---,0.00,VWS V14.00,2013-02-21 00:36:00,
2013-02-20 17:37:00,27.1,9.6,0.00,SE,145,0.0,0.0,47,0.00,,---,0.00,VWS V14.00,2013-02-21 00:37:00,
2013-02-20 17:40:00,27.0,9.4,0.00,SE,145,0.0,0.0,47,0.00,,---,0.00,VWS V14.00,2013-02-21 00:40:00,
2013-02-20 17:41:00,27.0,9.4,0.00,SE,145,0.0,0.0,47,0.00,,---,0.00,VWS V14.00,2013-02-21 00:41:00,
2013-02-20 17:42:00,27.0,9.4,0.00,SSE,156,0.0,0.0,47,0.00,,---,0.00,VWS V14.00,2013-02-21 00:42:00,
2013-02-20 17:45:00,26.8,9.3,0.00,SSE,158,0.0,0.0,47,0.00,,---,0.00,VWS V14.00,2013-02-21 00:45:00,
2013-02-20 17:47:00,26.8,9.3,0.00,SSE,158,0.0,0.0,47,0.00,,---,0.00,VWS V14.00,2013-02-21 00:47:00,
2013-02-20 17:50:00,26.6,9.1,0.00,SSE,151,0.0,0.0,47,0.00,,---,0.00,VWS V14.00,2013-02-21 00:50:00,
2013-02-20 17:52:00,26.6,9.1,0.00,SSE,151,0.0,0.0,47,0.00,,---,0.00,VWS V14.00,2013-02-21 00:52:00,
2013-02-20 17:53:00,26.4,8.9,0.00,SSE,151,0.0,0.0,47,0.00,,---,0.00,VWS V14.00,2013-02-21 00:53:00,
2013-02-20 17:55:00,26.4,8.9,0.00,SSE,151,0.0,0.0,47,0.00,,---,0.00,VWS V14.00,2013-02-21 00:55:00,
2013-02-20 17:57:00,26.4,8.9,0.00,SE,138,0.0,0.0,47,0.00,,---,0.00,VWS V14.00,2013-02-21 00:57:00,
2013-02-20 17:58:00,26.2,8.8,0.00,SE,144,0.0,0.0,47,0.00,,---,0.00,VWS V14.00,2013-02-21 00:58:00,
2013-02-20 18:00:00,26.2,8.3,0.00,SE,144,0.0,0.0,46,0.00,,---,0.00,VWS V14.00,2013-02-21 01:00:00,
2013-02-20 18:02:00,26.1,8.6,0.00,SE,145,0.0,0.0,47,0.00,,---,0.00,VWS V14.00,2013-02-21 01:02:00,
2013-02-20 18:03:00,26.1,8.6,0.00,SSE,157,0.0,0.0,47,0.00,,---,0.00,VWS V14.00,2013-02-21 01:03:00,
2013-02-20 18:05:00,26.1,8.6,0.00,SSE,160,0.0,0.0,47,0.00,,---,0.00,VWS V14.00,2013-02-21 01:05:00,
2013-02-20 18:07:00,26.1,8.6,0.00,SSE,160,0.0,0.0,47,0.00,,---,0.00,VWS V14.00,2013-02-21 01:07:00,
2013-02-20 18:08:00,25.9,8.4,0.00,SSE,160,0.0,0.0,47,0.00,,---,0.00,VWS V14.00,2013-02-21 01:08:00,
2013-02-20 18:10:00,25.9,8.0,0.00,SSE,163,0.0,0.0,46,0.00,,---,0.00,VWS V14.00,2013-02-21 01:10:00,
2013-02-20 18:12:00,25.7,8.3,0.00,South,175,0.0,0.0,47,0.00,,---,0.00,VWS V14.00,2013-02-21 01:12:00,
2013-02-20 18:13:00,25.7,8.3,0.00,South,182,0.0,0.0,47,0.00,,---,0.00,VWS V14.00,2013-02-21 01:13:00,
2013-02-20 18:15:00,25.5,8.1,0.00,South,182,0.0,0.0,47,0.00,,---,0.00,VWS V14.00,2013-02-21 01:15:00,
2013-02-20 18:17:00,25.5,7.6,0.00,South,182,0.0,0.0,46,0.00,,---,0.00,VWS V14.00,2013-02-21 01:17:00,
2013-02-20 18:18:00,25.5,7.6,0.00,SSW,193,0.0,0.0,46,0.00,,---,0.00,VWS V14.00,2013-02-21 01:18:00,
2013-02-20 18:20:00,25.3,7.5,0.00,SW,226,0.0,0.0,46,0.00,,---,0.00,VWS V14.00,2013-02-21 01:20:00,
2013-02-20 18:22:00,25.3,7.5,0.00,SW,227,0.0,0.0,46,0.00,,---,0.00,VWS V14.00,2013-02-21 01:22:00,
2013-02-20 18:23:00,25.3,7.5,0.00,SW,227,0.0,0.0,46,0.00,,---,0.00,VWS V14.00,2013-02-21 01:23:00,
2013-02-20 18:26:00,25.2,7.8,0.00,SSW,209,0.0,0.0,47,0.00,,---,0.00,VWS V14.00,2013-02-21 01:26:00,
2013-02-20 18:28:00,25.2,7.3,0.00,SSW,209,0.0,0.0,46,0.00,,---,0.00,VWS V14.00,2013-02-21 01:28:00,
2013-02-20 18:31:00,25.0,7.1,0.00,SSW,211,0.0,0.0,46,0.00,,---,0.00,VWS V14.00,2013-02-21 01:31:00,
2013-02-20 18:33:00,24.8,7.4,0.00,SSW,211,0.0,0.0,47,0.00,,---,0.00,VWS V14.00,2013-02-21 01:33:00,
2013-02-20 18:36:00,24.8,7.4,0.00,SSW,210,0.0,0.0,47,0.00,,---,0.00,VWS V14.00,2013-02-21 01:36:00,
2013-02-20 18:38:00,24.8,7.0,0.00,SSW,210,0.0,0.0,46,0.00,,---,0.00,VWS V14.00,2013-02-21 01:38:00,
2013-02-20 18:41:00,24.6,6.8,0.00,SSW,210,0.0,0.0,46,0.00,,---,0.00,VWS V14.00,2013-02-21 01:41:00,
2013-02-20 18:43:00,24.6,6.8,0.00,SSW,207,0.0,0.0,46,0.00,,---,0.00,VWS V14.00,2013-02-21 01:43:00,
2013-02-20 18:44:00,24.6,6.8,0.00,SSW,211,0.0,0.0,46,0.00,,---,0.00,VWS V14.00,2013-02-21 01:44:00,
2013-02-20 18:46:00,24.4,6.6,0.00,SSW,210,0.0,0.0,46,0.00,,---,0.00,VWS V14.00,2013-02-21 01:46:00,
2013-02-20 18:48:00,24.4,6.6,0.00,SSW,211,0.0,0.0,46,0.00,,---,0.00,VWS V14.00,2013-02-21 01:48:00,
2013-02-20 18:49:00,24.4,6.6,0.00,SSW,211,0.0,0.0,46,0.00,,---,0.00,VWS V14.00,2013-02-21 01:49:00,
2013-02-20 18:51:00,24.4,7.1,0.00,SSW,211,0.0,0.0,47,0.00,,---,0.00,VWS V14.00,2013-02-21 01:51:00,
2013-02-20 18:53:00,24.4,6.6,0.00,SSW,211,0.0,0.0,46,0.00,,---,0.00,VWS V14.00,2013-02-21 01:53:00,
2013-02-20 18:54:00,24.4,6.6,0.00,SSW,210,0.0,0.0,46,0.00,,---,0.00,VWS V14.00,2013-02-21 01:54:00,
2013-02-20 18:56:00,24.4,6.6,0.00,SSW,210,0.0,0.0,46,0.00,,---,0.00,VWS V14.00,2013-02-21 01:56:00,
2013-02-20 18:58:00,24.3,6.5,0.00,SSW,210,0.0,0.0,46,0.00,,---,0.00,VWS V14.00,2013-02-21 01:58:00,
2013-02-20 18:59:00,24.3,6.5,0.00,SSW,211,0.0,0.0,46,0.00,,---,0.00,VWS V14.00,2013-02-21 01:59:00,
2013-02-20 19:01:00,24.3,6.5,0.00,SSW,211,0.0,0.0,46,0.00,,---,0.00,VWS V14.00,2013-02-21 02:01:00,
2013-02-20 19:03:00,24.1,6.3,0.00,SSW,211,0.0,0.0,46,0.00,,---,0.00,VWS V14.00,2013-02-21 02:03:00,
2013-02-20 19:04:00,24.1,6.3,0.00,SSW,211,0.0,0.0,46,0.00,,---,0.00,VWS V14.00,2013-02-21 02:04:00,
2013-02-20 19:06:00,24.1,6.3,0.00,SSW,210,0.0,0.0,46,0.00,,---,0.00,VWS V14.00,2013-02-21 02:06:00,
2013-02-20 19:09:00,24.1,6.3,0.00,SSW,210,0.0,0.0,46,0.00,,---,0.00,VWS V14.00,2013-02-21 02:09:00,
2013-02-20 19:11:00,23.9,6.1,0.00,SSW,210,0.0,0.0,46,0.00,,---,0.00,VWS V14.00,2013-02-21 02:11:00,
2013-02-20 19:14:00,23.9,6.1,0.00,SSW,210,0.0,0.0,46,0.00,,---,0.00,VWS V14.00,2013-02-21 02:14:00,
2013-02-20 19:16:00,23.9,6.1,0.00,SSW,210,0.0,0.0,46,0.00,,---,0.00,VWS V14.00,2013-02-21 02:16:00,
2013-02-20 19:19:00,23.9,6.1,0.00,SSW,211,0.0,0.0,46,0.00,,---,0.00,VWS V14.00,2013-02-21 02:19:00,
2013-02-20 19:21:00,23.7,6.0,0.00,SSW,209,0.0,0.0,46,0.00,,---,0.00,VWS V14.00,2013-02-21 02:21:00,
2013-02-20 19:24:00,23.7,6.0,0.00,SSW,211,0.0,0.0,46,0.00,,---,0.00,VWS V14.00,2013-02-21 02:24:00,
2013-02-20 19:26:00,23.7,6.0,0.00,SSW,211,0.0,0.0,46,0.00,,---,0.00,VWS V14.00,2013-02-21 02:26:00,
2013-02-20 19:29:00,23.5,5.8,0.00,SSW,211,0.0,0.0,46,0.00,,---,0.00,VWS V14.00,2013-02-21 02:29:00,
2013-02-20 19:31:00,23.5,6.3,0.00,SSW,210,0.0,0.0,47,0.00,,---,0.00,VWS V14.00,2013-02-21 02:31:00,
2013-02-20 19:34:00,23.5,6.3,0.00,SSW,211,0.0,0.0,47,0.00,,---,0.00,VWS V14.00,2013-02-21 02:34:00,
2013-02-20 19:36:00,23.5,6.3,0.00,SSW,211,0.0,0.0,47,0.00,,---,0.00,VWS V14.00,2013-02-21 02:36:00,
2013-02-20 19:39:00,23.5,5.8,0.00,SSW,211,0.0,0.0,46,0.00,,---,0.00,VWS V14.00,2013-02-21 02:39:00,
2013-02-20 19:41:00,23.4,6.1,0.00,SSW,211,0.0,0.0,47,0.00,,---,0.00,VWS V14.00,2013-02-21 02:41:00,
2013-02-20 19:44:00,23.4,5.7,0.00,SSW,211,0.0,0.0,46,0.00,,---,0.00,VWS V14.00,2013-02-21 02:44:00,
2013-02-20 19:45:00,23.4,5.7,0.00,SSW,211,0.0,0.0,46,0.00,,---,0.00,VWS V14.00,2013-02-21 02:45:00,
2013-02-20 19:46:00,23.4,5.7,0.00,SSW,211,0.0,0.0,46,0.00,,---,0.00,VWS V14.00,2013-02-21 02:46:00,
2013-02-20 19:49:00,23.2,5.5,0.00,SSW,211,0.0,0.0,46,0.00,,---,0.00,VWS V14.00,2013-02-21 02:49:00,
2013-02-20 19:50:00,23.2,5.5,0.00,SSW,211,0.0,0.0,46,0.00,,---,0.00,VWS V14.00,2013-02-21 02:50:00,
2013-02-20 19:52:00,23.2,5.9,0.00,SSW,211,0.0,0.0,47,0.00,,---,0.00,VWS V14.00,2013-02-21 02:52:00,
2013-02-20 19:55:00,23.2,5.9,0.00,SSW,211,0.0,0.0,47,0.00,,---,0.00,VWS V14.00,2013-02-21 02:55:00,
2013-02-20 19:57:00,23.2,5.9,0.00,SSW,211,0.0,0.0,47,0.00,,---,0.00,VWS V14.00,2013-02-21 02:57:00,
2013-02-20 20:00:00,23.0,5.8,0.00,SSW,211,0.0,0.0,47,0.00,,---,0.00,VWS V14.00,2013-02-21 03:00:00,
2013-02-20 20:02:00,23.0,5.8,0.00,SSW,210,0.0,0.0,47,0.00,,---,0.00,VWS V14.00,2013-02-21 03:02:00,
2013-02-20 20:05:00,23.0,5.8,0.00,SSW,211,0.0,0.0,47,0.00,,---,0.00,VWS V14.00,2013-02-21 03:05:00,
2013-02-20 20:07:00,23.0,5.8,0.00,SSW,210,0.0,0.0,47,0.00,,---,0.00,VWS V14.00,2013-02-21 03:07:00,
2013-02-20 20:10:00,22.8,5.6,0.00,SSW,211,0.0,0.0,47,0.00,,---,0.00,VWS V14.00,2013-02-21 03:10:00,
2013-02-20 20:11:00,22.8,5.6,0.00,SSW,211,0.0,0.0,47,0.00,,---,0.00,VWS V14.00,2013-02-21 03:11:00,
2013-02-20 20:12:00,22.8,5.6,0.00,SSW,211,0.0,0.0,47,0.00,,---,0.00,VWS V14.00,2013-02-21 03:12:00,
2013-02-20 20:15:00,22.8,5.6,0.00,SSW,211,0.0,0.0,47,0.00,,---,0.00,VWS V14.00,2013-02-21 03:15:00,
2013-02-20 20:16:00,22.6,5.5,0.00,SSW,211,0.0,0.0,47,0.00,,---,0.00,VWS V14.00,2013-02-21 03:16:00,
2013-02-20 20:17:00,22.8,5.6,0.00,SSW,211,0.0,0.0,47,0.00,,---,0.00,VWS V14.00,2013-02-21 03:17:00,
2013-02-20 20:20:00,22.8,5.2,0.00,SSW,211,0.0,0.0,46,0.00,,---,0.00,VWS V14.00,2013-02-21 03:20:00,
2013-02-20 20:21:00,22.8,5.2,0.00,SSW,211,0.0,0.0,46,0.00,,---,0.00,VWS V14.00,2013-02-21 03:21:00,
2013-02-20 20:22:00,22.8,5.2,0.00,SSW,211,0.0,0.0,46,0.00,,---,0.00,VWS V14.00,2013-02-21 03:22:00,
2013-02-20 20:25:00,22.6,5.0,0.00,SSW,211,0.0,0.0,46,0.00,,---,0.00,VWS V14.00,2013-02-21 03:25:00,
2013-02-20 20:26:00,22.6,5.0,0.00,SSW,211,0.0,0.0,46,0.00,,---,0.00,VWS V14.00,2013-02-21 03:26:00,
2013-02-20 20:27:00,22.6,5.0,0.00,SSW,211,0.0,0.0,46,0.00,,---,0.00,VWS V14.00,2013-02-21 03:27:00,
2013-02-20 20:30:00,22.5,4.8,0.00,SSW,203,0.0,0.0,46,0.00,,---,0.00,VWS V14.00,2013-02-21 03:30:00,
2013-02-20 20:31:00,22.5,4.8,0.00,SSW,211,0.0,0.0,46,0.00,,---,0.00,VWS V14.00,2013-02-21 03:31:00,
2013-02-20 20:32:00,22.5,4.8,0.00,SSW,211,0.0,0.0,46,0.00,,---,0.00,VWS V14.00,2013-02-21 03:32:00,
2013-02-20 20:35:00,22.5,4.8,0.00,SSW,211,0.0,0.0,46,0.00,,---,0.00,VWS V14.00,2013-02-21 03:35:00,
2013-02-20 20:36:00,22.5,4.8,0.00,SSW,211,0.0,0.0,46,0.00,,---,0.00,VWS V14.00,2013-02-21 03:36:00,
2013-02-20 20:37:00,22.5,4.8,0.00,SSW,211,0.0,0.0,46,0.00,,---,0.00,VWS V14.00,2013-02-21 03:37:00,
2013-02-20 20:40:00,22.3,4.7,0.00,SSW,211,0.0,0.0,46,0.00,,---,0.00,VWS V14.00,2013-02-21 03:40:00,
2013-02-20 20:41:00,22.3,4.7,0.00,SSW,211,0.0,0.0,46,0.00,,---,0.00,VWS V14.00,2013-02-21 03:41:00,
2013-02-20 20:42:00,22.3,4.7,0.00,SSW,211,0.0,0.0,46,0.00,,---,0.00,VWS V14.00,2013-02-21 03:42:00,
2013-02-20 20:45:00,22.1,4.5,0.00,SSW,211,0.0,0.0,46,0.00,,---,0.00,VWS V14.00,2013-02-21 03:45:00,
2013-02-20 20:46:00,22.1,4.5,0.00,SSW,211,0.0,0.0,46,0.00,,---,0.00,VWS V14.00,2013-02-21 03:46:00,
2013-02-20 20:47:00,22.1,4.5,0.00,SSW,211,0.0,0.0,46,0.00,,---,0.00,VWS V14.00,2013-02-21 03:47:00,
2013-02-20 20:50:00,21.9,4.3,0.00,SSW,211,0.0,0.0,46,0.00,,---,0.00,VWS V14.00,2013-02-21 03:50:00,
2013-02-20 20:51:00,21.9,4.3,0.00,SSW,211,0.0,0.0,46,0.00,,---,0.00,VWS V14.00,2013-02-21 03:51:00,
2013-02-20 20:52:00,21.9,4.3,0.00,SSW,211,0.0,0.0,46,0.00,,---,0.00,VWS V14.00,2013-02-21 03:52:00,
2013-02-20 20:55:00,21.9,4.3,0.00,SSW,211,0.0,0.0,46,0.00,,---,0.00,VWS V14.00,2013-02-21 03:55:00,
2013-02-20 20:57:00,21.9,4.3,0.00,SSW,211,0.0,0.0,46,0.00,,---,0.00,VWS V14.00,2013-02-21 03:57:00,
2013-02-20 20:58:00,21.7,4.2,0.00,SSW,211,0.0,0.0,46,0.00,,---,0.00,VWS V14.00,2013-02-21 03:58:00,
2013-02-20 21:00:00,21.7,4.2,0.00,SSW,210,0.0,0.0,46,0.00,,---,0.00,VWS V14.00,2013-02-21 04:00:00,
2013-02-20 21:02:00,21.7,4.2,0.00,SSW,211,0.0,0.0,46,0.00,,---,0.00,VWS V14.00,2013-02-21 04:02:00,
2013-02-20 21:03:00,21.6,4.0,0.00,SSW,211,0.0,0.0,46,0.00,,---,0.00,VWS V14.00,2013-02-21 04:03:00,
2013-02-20 21:05:00,21.6,4.0,0.00,SSW,211,0.0,0.0,46,0.00,,---,0.00,VWS V14.00,2013-02-21 04:05:00,
2013-02-20 21:07:00,21.6,4.0,0.00,SSW,211,0.0,0.0,46,0.00,,---,0.00,VWS V14.00,2013-02-21 04:07:00,
2013-02-20 21:08:00,21.4,3.8,0.00,SSW,210,0.0,0.0,46,0.00,,---,0.00,VWS V14.00,2013-02-21 04:08:00,
2013-02-20 21:11:00,21.4,3.8,0.00,SSW,210,0.0,0.0,46,0.00,,---,0.00,VWS V14.00,2013-02-21 04:11:00,
2013-02-20 21:12:00,21.2,3.7,0.00,SSW,211,0.0,0.0,46,0.00,,---,0.00,VWS V14.00,2013-02-21 04:12:00,
2013-02-20 21:14:00,21.2,3.7,0.00,SSW,211,0.0,0.0,46,0.00,,---,0.00,VWS V14.00,2013-02-21 04:14:00,
2013-02-20 21:16:00,21.2,3.7,0.00,SSW,211,0.0,0.0,46,0.00,,---,0.00,VWS V14.00,2013-02-21 04:16:00,
2013-02-20 21:17:00,21.2,3.7,0.00,SSW,211,0.0,0.0,46,0.00,,---,0.00,VWS V14.00,2013-02-21 04:17:00,
2013-02-20 21:19:00,21.2,3.7,0.00,SSW,211,0.0,0.0,46,0.00,,---,0.00,VWS V14.00,2013-02-21 04:19:00,
2013-02-20 21:21:00,21.0,3.5,0.00,SSW,211,0.0,0.0,46,0.00,,---,0.00,VWS V14.00,2013-02-21 04:21:00,
2013-02-20 21:22:00,21.0,3.5,0.00,SSW,211,0.0,0.0,46,0.00,,---,0.00,VWS V14.00,2013-02-21 04:22:00,
2013-02-20 21:23:00,21.0,3.5,0.00,SSW,211,0.0,0.0,46,0.00,,---,0.00,VWS V14.00,2013-02-21 04:23:00,
2013-02-20 21:24:00,21.0,3.5,0.00,SSW,211,0.0,0.0,46,0.00,,---,0.00,VWS V14.00,2013-02-21 04:24:00,
2013-02-20 21:26:00,20.8,3.3,0.00,SSW,209,0.0,0.0,46,0.00,,---,0.00,VWS V14.00,2013-02-21 04:26:00,
2013-02-20 21:28:00,20.8,3.3,0.00,SSW,211,0.0,0.0,46,0.00,,---,0.00,VWS V14.00,2013-02-21 04:28:00,
2013-02-20 21:29:00,20.8,3.3,0.00,SSW,211,0.0,0.0,46,0.00,,---,0.00,VWS V14.00,2013-02-21 04:29:00,
2013-02-20 21:31:00,20.7,3.2,0.00,SSW,210,0.0,0.0,46,0.00,,---,0.00,VWS V14.00,2013-02-21 04:31:00,
2013-02-20 21:33:00,20.7,3.2,0.00,SSW,205,0.0,0.0,46,0.00,,---,0.00,VWS V14.00,2013-02-21 04:33:00,
2013-02-20 21:34:00,20.7,3.2,0.00,SSW,211,0.0,0.0,46,0.00,,---,0.00,VWS V14.00,2013-02-21 04:34:00,
2013-02-20 21:36:00,20.7,3.6,0.00,SSW,211,0.0,0.0,47,0.00,,---,0.00,VWS V14.00,2013-02-21 04:36:00,
2013-02-20 21:38:00,20.5,3.5,0.00,SSW,211,0.0,0.0,47,0.00,,---,0.00,VWS V14.00,2013-02-21 04:38:00,
2013-02-20 21:39:00,20.5,3.5,0.00,SSW,208,0.0,0.0,47,0.00,,---,0.00,VWS V14.00,2013-02-21 04:39:00,
2013-02-20 21:41:00,20.3,3.3,0.00,SSW,211,0.0,0.0,47,0.00,,---,0.00,VWS V14.00,2013-02-21 04:41:00,
2013-02-20 21:43:00,20.3,3.3,0.00,SSW,211,0.0,0.0,47,0.00,,---,0.00,VWS V14.00,2013-02-21 04:43:00,
2013-02-20 21:44:00,20.3,3.3,0.00,SSW,211,0.0,0.0,47,0.00,,---,0.00,VWS V14.00,2013-02-21 04:44:00,
2013-02-20 21:46:00,20.3,3.3,0.00,SSW,211,0.0,0.0,47,0.00,,---,0.00,VWS V14.00,2013-02-21 04:46:00,
2013-02-20 21:48:00,20.3,3.3,0.00,SSW,211,0.0,0.0,47,0.00,,---,0.00,VWS V14.00,2013-02-21 04:48:00,
2013-02-20 21:49:00,20.3,3.3,0.00,SSW,211,0.0,0.0,47,0.00,,---,0.00,VWS V14.00,2013-02-21 04:49:00,
2013-02-20 21:51:00,20.1,3.1,0.00,SSW,211,0.0,0.0,47,0.00,,---,0.00,VWS V14.00,2013-02-21 04:51:00,
2013-02-20 21:53:00,20.1,3.1,0.00,SSW,211,0.0,0.0,47,0.00,,---,0.00,VWS V14.00,2013-02-21 04:53:00,
2013-02-20 21:54:00,20.1,3.1,0.00,SSW,211,0.0,0.0,47,0.00,,---,0.00,VWS V14.00,2013-02-21 04:54:00,
2013-02-20 21:56:00,19.9,3.0,0.00,SSW,211,0.0,0.0,47,0.00,,---,0.00,VWS V14.00,2013-02-21 04:56:00,
2013-02-20 21:58:00,19.9,3.0,0.00,SSW,211,0.0,0.0,47,0.00,,---,0.00,VWS V14.00,2013-02-21 04:58:00,
2013-02-20 21:59:00,19.9,3.0,0.00,SSW,211,0.0,0.0,47,0.00,,---,0.00,VWS V14.00,2013-02-21 04:59:00,
2013-02-20 22:00:00,19.9,3.0,0.00,SSW,211,0.0,0.0,47,0.00,,---,0.00,VWS V14.00,2013-02-21 05:00:00,
2013-02-20 22:01:00,19.9,3.0,0.00,SSW,211,0.0,0.0,47,0.00,,---,0.00,VWS V14.00,2013-02-21 05:01:00,
2013-02-20 22:05:00,19.8,3.3,0.00,SSW,203,0.0,0.0,48,0.00,,---,0.00,VWS V14.00,2013-02-21 05:05:00,
2013-02-20 22:06:00,19.8,3.3,0.00,SSW,211,0.0,0.0,48,0.00,,---,0.00,VWS V14.00,2013-02-21 05:06:00,
2013-02-20 22:10:00,19.6,3.1,0.00,SSW,211,0.0,0.0,48,0.00,,---,0.00,VWS V14.00,2013-02-21 05:10:00,
2013-02-20 22:12:00,19.6,3.1,0.00,SSW,211,0.0,0.0,48,0.00,,---,0.00,VWS V14.00,2013-02-21 05:12:00,
2013-02-20 22:15:00,19.4,3.4,0.00,SSW,211,0.0,0.0,49,0.00,,---,0.00,VWS V14.00,2013-02-21 05:15:00,
2013-02-20 22:16:00,19.4,3.4,0.00,SSW,210,0.0,0.0,49,0.00,,---,0.00,VWS V14.00,2013-02-21 05:16:00,
2013-02-20 22:17:00,19.4,3.4,0.00,SSW,210,0.0,0.0,49,0.00,,---,0.00,VWS V14.00,2013-02-21 05:17:00,
2013-02-20 22:20:00,19.4,3.4,0.00,SSW,203,0.0,0.0,49,0.00,,---,0.00,VWS V14.00,2013-02-21 05:20:00,
2013-02-20 22:21:00,19.4,3.4,0.00,SSW,203,0.0,0.0,49,0.00,,---,0.00,VWS V14.00,2013-02-21 05:21:00,
2013-02-20 22:22:00,19.4,3.4,0.00,SSW,211,0.0,0.0,49,0.00,,---,0.00,VWS V14.00,2013-02-21 05:22:00,
2013-02-20 22:25:00,19.2,3.6,0.00,SSW,211,0.0,0.0,50,0.00,,---,0.00,VWS V14.00,2013-02-21 05:25:00,
2013-02-20 22:26:00,19.2,3.6,0.00,SSW,211,0.0,0.0,50,0.00,,---,0.00,VWS V14.00,2013-02-21 05:26:00,
2013-02-20 22:27:00,19.2,3.6,0.00,SSW,211,0.0,0.0,50,0.00,,---,0.00,VWS V14.00,2013-02-21 05:27:00,
2013-02-20 22:30:00,19.2,3.6,0.00,SSW,211,0.0,0.0,50,0.00,,---,0.00,VWS V14.00,2013-02-21 05:30:00,
2013-02-20 22:31:00,19.2,4.1,0.00,SSW,211,0.0,0.0,51,0.00,,---,0.00,VWS V14.00,2013-02-21 05:31:00,
2013-02-20 22:32:00,19.2,4.1,0.00,SSW,211,0.0,0.0,51,0.00,,---,0.00,VWS V14.00,2013-02-21 05:32:00,
2013-02-20 22:35:00,19.2,4.1,0.00,SSW,211,0.0,0.0,51,0.00,,---,0.00,VWS V14.00,2013-02-21 05:35:00,
2013-02-20 22:36:00,19.0,3.9,0.00,SSW,211,0.0,0.0,51,0.00,,---,0.00,VWS V14.00,2013-02-21 05:36:00,
2013-02-20 22:37:00,19.0,3.9,0.00,SSW,211,0.0,0.0,51,0.00,,---,0.00,VWS V14.00,2013-02-21 05:37:00,
2013-02-20 22:40:00,19.0,4.3,0.00,SSW,211,0.0,0.0,52,0.00,,---,0.00,VWS V14.00,2013-02-21 05:40:00,
2013-02-20 22:41:00,19.0,4.3,0.00,SSW,211,0.0,0.0,52,0.00,,---,0.00,VWS V14.00,2013-02-21 05:41:00,
2013-02-20 22:43:00,19.0,4.3,0.00,SSW,211,0.0,0.0,52,0.00,,---,0.00,VWS V14.00,2013-02-21 05:43:00,
2013-02-20 22:45:00,19.0,4.3,0.00,SSW,210,0.0,0.0,52,0.00,,---,0.00,VWS V14.00,2013-02-21 05:45:00,
2013-02-20 22:46:00,19.0,4.3,0.00,SSW,211,0.0,0.0,52,0.00,,---,0.00,VWS V14.00,2013-02-21 05:46:00,
2013-02-20 22:48:00,19.0,4.3,0.00,SSW,211,0.0,0.0,52,0.00,,---,0.00,VWS V14.00,2013-02-21 05:48:00,
2013-02-20 22:50:00,19.0,4.7,0.00,SSW,211,0.0,0.0,53,0.00,,---,0.00,VWS V14.00,2013-02-21 05:50:00,
2013-02-20 22:51:00,19.0,4.7,0.00,SSW,211,0.0,0.0,53,0.00,,---,0.00,VWS V14.00,2013-02-21 05:51:00,
2013-02-20 22:52:00,19.0,4.7,0.00,SSW,211,0.0,0.0,53,0.00,,---,0.00,VWS V14.00,2013-02-21 05:52:00,
2013-02-20 22:53:00,19.0,4.7,0.00,SSW,207,0.0,0.0,53,0.00,,---,0.00,VWS V14.00,2013-02-21 05:53:00,
2013-02-20 22:55:00,19.0,4.7,0.00,SSW,211,0.0,0.0,53,0.00,,---,0.00,VWS V14.00,2013-02-21 05:55:00,
2013-02-20 22:57:00,19.0,4.7,0.00,SSW,211,0.0,0.0,53,0.00,,---,0.00,VWS V14.00,2013-02-21 05:57:00,
2013-02-20 22:58:00,19.0,4.7,0.00,SSW,211,0.0,0.0,53,0.00,,---,0.00,VWS V14.00,2013-02-21 05:58:00,
2013-02-20 23:00:00,19.0,4.7,0.00,SSW,211,0.0,0.0,53,0.00,,---,0.00,VWS V14.00,2013-02-21 06:00:00,
2013-02-20 23:02:00,18.9,4.6,0.00,SSW,211,0.0,0.0,53,0.00,,---,0.00,VWS V14.00,2013-02-21 06:02:00,
2013-02-20 23:03:00,18.9,4.6,0.00,SSW,211,0.0,0.0,53,0.00,,---,0.00,VWS V14.00,2013-02-21 06:03:00,
2013-02-20 23:05:00,18.9,4.6,0.00,SSW,211,0.0,0.0,53,0.00,,---,0.00,VWS V14.00,2013-02-21 06:05:00,
2013-02-20 23:07:00,18.9,4.6,0.00,SSW,211,0.0,0.0,53,0.00,,---,0.00,VWS V14.00,2013-02-21 06:07:00,
2013-02-20 23:08:00,18.9,4.6,0.00,SSW,211,0.0,0.0,53,0.00,,---,0.00,VWS V14.00,2013-02-21 06:08:00,
2013-02-20 23:11:00,18.9,4.6,0.00,SSW,211,0.0,0.0,53,0.00,,---,0.00,VWS V14.00,2013-02-21 06:11:00,
2013-02-20 23:13:00,18.9,4.6,0.00,SSW,211,0.0,0.0,53,0.00,,---,0.00,VWS V14.00,2013-02-21 06:13:00,
2013-02-20 23:16:00,18.9,4.6,0.00,SSW,211,0.0,0.0,53,0.00,,---,0.00,VWS V14.00,2013-02-21 06:16:00,
2013-02-20 23:17:00,18.9,4.6,0.00,SSW,211,0.0,0.0,53,0.00,,---,0.00,VWS V14.00,2013-02-21 06:17:00,
2013-02-20 23:18:00,18.9,4.6,0.00,SSW,211,0.0,0.0,53,0.00,,---,0.00,VWS V14.00,2013-02-21 06:18:00,
2013-02-20 23:21:00,18.9,4.6,0.00,SSW,211,0.0,0.0,53,0.00,,---,0.00,VWS V14.00,2013-02-21 06:21:00,
2013-02-20 23:23:00,18.9,4.6,0.00,SSW,211,0.0,0.0,53,0.00,,---,0.00,VWS V14.00,2013-02-21 06:23:00,
2013-02-20 23:26:00,18.9,5.0,0.00,SSW,211,0.0,0.0,54,0.00,,---,0.00,VWS V14.00,2013-02-21 06:26:00,
2013-02-20 23:28:00,18.7,4.8,0.00,SSW,211,0.0,0.0,54,0.00,,---,0.00,VWS V14.00,2013-02-21 06:28:00,
2013-02-20 23:31:00,18.9,5.0,0.00,SSW,211,0.0,0.0,54,0.00,,---,0.00,VWS V14.00,2013-02-21 06:31:00,
2013-02-20 23:33:00,18.9,5.0,0.00,SSW,211,0.0,0.0,54,0.00,,---,0.00,VWS V14.00,2013-02-21 06:33:00,
2013-02-20 23:36:00,18.7,4.4,0.00,SSW,211,0.0,0.0,53,0.00,,---,0.00,VWS V14.00,2013-02-21 06:36:00,
2013-02-20 23:38:00,18.7,4.4,0.00,SSW,211,0.0,0.0,53,0.00,,---,0.00,VWS V14.00,2013-02-21 06:38:00,
2013-02-20 23:41:00,18.7,4.4,0.00,SSW,211,0.0,0.0,53,0.00,,---,0.00,VWS V14.00,2013-02-21 06:41:00,
2013-02-20 23:43:00,18.7,4.8,0.00,SSW,207,0.0,0.0,54,0.00,,---,0.00,VWS V14.00,2013-02-21 06:43:00,
2013-02-20 23:46:00,18.7,4.8,0.00,SSW,208,0.0,0.0,54,0.00,,---,0.00,VWS V14.00,2013-02-21 06:46:00,
2013-02-20 23:48:00,18.7,4.8,0.00,SSW,211,0.0,0.0,54,0.00,,---,0.00,VWS V14.00,2013-02-21 06:48:00,
2013-02-20 23:51:00,18.7,4.8,0.00,SSW,211,0.0,0.0,54,0.00,,---,0.00,VWS V14.00,2013-02-21 06:51:00,
2013-02-20 23:53:00,18.7,4.8,0.00,SSW,211,0.0,0.0,54,0.00,,---,0.00,VWS V14.00,2013-02-21 06:53:00,
2013-02-20 23:56:00,18.7,4.8,0.00,SSW,211,0.0,0.0,54,0.00,,---,0.00,VWS V14.00,2013-02-21 06:56:00,
2013-02-20 23:58:00,18.7,4.8,0.00,SSW,211,0.0,0.0,54,0.00,,---,0.00,VWS V14.00,2013-02-21 06:58:00,
2013-02-20 23:59:00,18.7,4.8,0.00,SSW,211,0.0,0.0,54,0.00,,---,0.00,VWS V14.00,2013-02-21 06:59:00,